GEFSNGP_con_probscp_060.txt.gz
Probability
0 0 0 0 0 0 0 0 0 0 0 0 0 0 0 0 0 1 3 6 15 32 44 36 21 11 5 2 1 1 1 0 1 2 4 4 4 4 3 1 1 1 0 0
0 0 0 0 0 0 0 0 0 0 0 0 0 0 0 0 0 1 2 6 15 33 47 46 32 17 9 5 4 3 2 1 2 3 4 5 4 3 3 3 3 3 2 1
0 0 0 0 0 0 0 0 0 0 0 0 0 0 0 0 0 0 1 5 14 31 49 55 43 27 16 10 7 6 5 4 4 4 5 5 5 4 6 8 9 9 7 6
0 0 0 0 0 0 0 0 0 0 0 0 0 0 0 0 0 0 0 3 9 21 37 47 42 32 24 15 9 7 6 6 6 5 6 8 8 9 14 19 21 18 14 12
0 0 0 0 0 0 0 0 0 1 1 0 0 0 0 0 1 1 1 3 6 9 19 36 45 43 33 20 11 8 7 8 8 8 8 10 13 17 24 31 31 23 16 15
0 0 0 0 0 0 0 1 1 1 0 1 1 2 1 2 4 5 7 10 12 10 19 43 62 63 52 36 24 16 12 12 13 13 13 14 19 27 32 35 32 23 17 18
1 1 2 3 3 4 6 5 2 0 0 2 5 7 9 12 17 20 22 24 27 30 40 62 79 80 71 59 48 36 25 22 22 21 19 19 27 36 38 34 29 24 22 22
4 7 11 11 9 9 10 7 3 0 1 3 8 13 19 28 35 37 37 37 43 54 65 76 85 86 82 76 67 55 45 39 35 32 25 25 35 43 40 34 28 23 22 21
13 18 20 15 9 7 6 4 1 0 0 3 8 15 23 31 38 40 41 43 51 63 75 81 86 87 86 82 76 67 61 57 51 45 39 37 41 41 36 31 25 21 19 19
19 23 21 12 5 2 1 0 0 0 0 1 6 11 17 23 28 32 36 40 47 57 67 74 78 79 81 80 77 71 67 65 60 51 46 47 45 37 31 27 25 24 21 19
26 25 19 10 3 1 0 0 0 0 0 1 2 5 10 16 20 22 26 30 35 42 50 56 61 65 69 72 72 68 65 61 51 39 36 41 40 33 26 22 21 21 17 13
32 25 16 8 2 0 0 0 0 0 0 0 0 2 6 10 12 13 16 19 22 25 30 36 42 48 55 61 65 64 62 54 37 25 24 29 33 30 21 12 9 8 6 4
25 17 8 4 1 0 0 0 0 0 0 0 0 2 3 4 5 6 8 9 11 12 15 21 26 31 39 48 54 55 51 42 29 22 21 23 28 28 20 9 4 3 1 0
13 8 3 1 0 0 0 0 0 0 0 0 0 1 1 1 1 2 2 3 3 4 6 10 14 19 26 33 38 38 32 25 24 24 20 19 22 23 19 13 10 9 6 4
7 5 2 0 0 0 0 0 0 0 0 0 0 0 0 0 0 0 0 0 0 0 1 4 7 11 16 19 22 22 18 14 15 17 15 12 12 11 11 10 9 11 12 9
2 1 0 0 0 0 0 0 0 0 0 0 0 0 0 0 0 0 0 0 0 0 1 2 4 6 8 9 11 12 10 6 6 8 7 6 6 4 4 4 4 6 9 8
0 0 0 0 0 0 0 0 0 0 0 0 0 0 0 0 0 0 0 0 0 0 0 1 1 2 4 4 5 5 4 1 1 2 2 2 2 1 1 2 1 1 2 2
0 0 0 0 0 0 0 0 0 0 0 0 0 0 0 0 0 0 0 0 0 0 0 0 0 1 2 2 2 2 1 0 0 0 0 0 0 0 0 0 0 0 0 0
0 0 0 0 0 0 0 0 0 0 0 0 0 0 0 0 0 0 0 0 0 0 0 0 0 0 1 1 1 1 1 0 0 0 0 0 0 0 0 0 0 0 0 0
0 0 0 0 0 0 0 0 0 0 0 0 0 0 0 0 0 0 0 0 0 0 0 0 0 0 0 0 0 0 0 0 0 0 0 0 0 0 0 0 0 0 0 0
0 0 0 0 0 0 0 0 0 0 0 0 0 0 0 0 0 0 0 0 0 0 0 0 0 0 0 0 0 0 0 0 0 0 0 0 0 0 0 0 0 0 0 0
0 0 0 0 0 0 0 0 0 0 0 0 0 0 0 0 0 0 0 0 0 0 0 0 0 0 0 0 0 0 0 0 0 0 0 0 0 0 0 0 0 0 0 0
0 0 0 0 0 0 0 0 0 0 0 0 0 0 0 0 0 0 0 0 0 0 0 0 0 0 0 0 0 0 0 0 0 0 0 0 0 0 0 0 0 0 0 0
0 0 0 0 0 0 0 0 0 0 0 0 0 0 0 0 0 0 0 0 0 0 0 0 0 0 0 0 0 0 0 0 0 0 0 0 0 0 0 0 0 0 0 0
0 0 0 0 0 0 0 0 0 0 0 0 0 0 0 0 0 0 0 0 0 0 0 0 0 0 0 0 0 0 0 0 0 0 0 0 0 0 0 0 0 0 0 0
0 0 0 0 0 0 0 0 0 0 0 0 0 0 0 0 0 0 0 0 0 0 0 0 0 0 0 0 0 0 0 0 0 0 0 0 0 0 0 0 0 0 0 0
0 0 0 0 0 0 0 0 0 0 0 0 0 0 0 0 0 0 0 0 0 0 0 0 0 0 0 0 0 0 0 0 0 0 0 0 0 0 0 0 0 0 0 0

GEFSNGP_con_probscp_066.txt.gz
Probability
0 0 0 0 0 0 0 0 0 0 0 0 0 0 0 0 0 0 0 0 0 0 0 0 0 0 0 0 0 0 0 0 0 0 0 0 0 0 0 0 0 0 0 0
0 0 0 0 0 0 0 0 0 0 0 0 0 0 0 0 0 0 0 0 0 0 0 0 0 0 0 0 0 0 0 0 0 0 0 0 0 0 0 0 0 0 0 0
0 0 0 0 0 0 0 0 0 1 1 0 0 0 0 0 0 0 0 0 0 0 0 0 0 0 0 0 0 0 0 0 0 0 0 0 0 0 0 0 0 0 0 0
0 0 0 0 0 0 0 0 0 1 1 0 0 0 0 0 0 0 0 0 0 0 0 0 0 0 0 0 0 0 0 0 0 0 0 0 0 0 0 0 0 0 0 0
0 0 0 0 0 0 0 0 0 1 1 0 1 1 0 0 0 0 0 0 0 1 1 0 0 0 0 0 0 0 0 0 0 0 0 0 0 0 0 0 0 0 0 0
0 0 0 0 0 0 0 0 0 0 0 0 1 1 0 0 1 1 0 0 0 1 1 0 0 0 0 0 0 0 0 0 0 0 0 0 0 0 0 0 0 0 0 0
0 0 0 0 0 0 0 0 0 0 0 0 0 0 0 0 1 1 0 0 0 0 0 0 0 0 0 0 0 0 0 0 0 0 0 0 0 0 0 0 0 0 0 0
0 0 0 0 0 0 0 0 0 0 0 0 0 0 0 0 1 1 0 0 0 0 0 0 0 0 0 0 0 0 0 0 0 0 0 0 0 0 0 0 0 0 0 0
0 0 0 0 0 0 0 0 0 0 0 0 0 0 0 0 0 1 1 1 0 0 0 0 0 0 0 0 0 0 0 0 0 0 0 0 0 0 0 0 0 0 0 0
0 0 0 0 0 0 0 0 0 0 0 0 0 0 0 0 0 1 2 1 0 0 0 0 0 0 0 0 0 0 0 0 0 0 0 0 0 0 0 0 0 0 0 0
0 0 0 0 0 0 0 0 0 0 0 0 0 0 0 0 0 1 1 1 0 0 0 0 0 0 0 0 0 0 0 0 0 0 0 0 0 0 0 0 0 0 0 0
0 0 0 0 0 0 0 0 0 0 0 0 0 0 0 0 0 0 0 0 0 0 0 0 0 0 0 0 0 0 0 0 0 0 0 0 0 0 0 0 0 0 0 0
1 0 0 0 0 0 0 0 0 0 0 0 0 0 0 0 0 0 0 0 0 0 0 0 0 0 0 0 0 0 0 0 0 0 0 0 0 0 0 0 0 0 0 0
1 0 0 0 0 0 0 0 0 0 0 0 0 0 0 0 0 0 0 0 0 0 0 0 0 0 0 0 0 0 0 0 0 0 0 0 0 0 0 0 0 0 0 0
1 0 0 0 0 0 0 0 0 0 0 0 0 0 0 0 0 0 0 0 0 0 0 0 0 0 0 0 0 0 0 0 0 0 0 0 0 0 0 0 0 0 0 0
0 0 0 0 0 0 0 0 0 0 0 0 0 0 0 0 0 0 0 0 0 0 0 0 0 0 0 0 0 0 0 0 0 0 0 0 0 0 0 0 0 0 0 0
0 0 0 0 0 0 0 0 0 0 0 0 0 0 0 0 0 0 0 0 0 0 0 0 0 0 0 0 0 0 0 0 0 0 0 0 0 0 0 0 0 0 0 0
0 0 0 0 0 0 0 0 0 0 0 0 0 0 0 0 0 0 0 0 0 0 0 0 0 0 0 0 0 0 0 0 0 0 0 0 0 0 0 0 0 0 0 0
0 0 0 0 0 0 0 0 0 0 0 0 0 0 0 0 0 0 0 0 0 0 0 0 0 0 0 0 0 0 0 0 0 0 0 0 0 0 0 0 0 0 0 0
0 0 0 0 0 0 0 0 0 0 0 0 0 0 0 0 0 0 0 0 0 0 0 0 0 0 0 0 0 0 0 0 0 0 0 0 0 0 0 0 0 0 0 0
0 0 0 0 0 0 0 0 0 0 0 0 0 0 0 0 0 0 0 0 0 0 0 0 0 0 0 0 0 0 0 0 0 0 0 0 0 0 0 0 0 0 0 0
0 0 0 0 0 0 0 0 0 0 0 0 0 0 0 0 0 0 0 0 0 0 0 0 0 0 0 0 0 0 0 0 0 0 0 0 0 0 0 0 0 0 0 0
0 0 0 0 0 0 0 0 0 0 0 0 0 0 0 0 0 0 0 0 0 0 0 0 0 0 0 0 0 0 0 0 0 0 0 0 0 0 0 0 0 0 0 0
0 0 0 0 0 0 0 0 0 0 0 0 0 0 0 0 0 0 0 0 0 0 0 0 0 0 0 0 0 0 0 0 0 0 0 0 0 0 0 0 0 0 0 0
0 0 0 0 0 0 0 0 0 0 0 0 0 0 0 0 0 0 0 0 0 0 0 0 0 0 0 0 0 0 0 0 0 0 0 0 0 0 0 0 0 0 0 0
0 0 0 0 0 0 0 0 0 0 0 0 0 0 0 0 0 0 0 0 0 0 0 0 0 0 0 0 0 0 0 0 0 0 0 0 0 0 0 0 0 0 0 0
0 0 0 0 0 0 0 0 0 0 0 0 0 0 0 0 0 0 0 0 0 0 0 0 0 0 0 0 0 0 0 0 0 0 0 0 0 0 0 0 0 0 0 0

GEFSNGP_con_probscp_072.txt.gz
Probability
0 0 0 0 0 0 0 0 0 0 0 0 0 0 0 0 0 0 0 0 0 0 0 0 0 0 1 2 2 1 0 0 0 0 0 0 0 0 0 0 0 0 0 0
0 0 0 0 0 0 0 0 0 0 0 0 0 0 0 0 0 0 0 0 0 0 0 0 0 0 0 1 1 0 0 0 0 0 0 0 0 0 0 0 0 0 0 0
0 0 0 0 0 0 0 0 0 0 0 0 0 0 0 0 0 0 0 0 0 0 0 0 0 0 0 0 0 0 0 0 0 0 0 0 0 0 0 0 0 0 0 0
0 0 0 0 0 0 0 0 0 0 0 0 0 0 0 0 0 0 0 0 0 0 0 0 0 0 0 0 0 0 0 0 0 0 0 0 0 0 0 0 0 0 0 0
0 0 0 0 0 0 0 0 0 0 0 0 0 0 0 0 0 0 0 0 0 0 0 0 0 0 0 0 0 0 0 0 0 0 0 0 0 0 0 0 0 0 0 0
0 0 0 0 0 0 0 0 0 0 0 0 0 0 0 0 0 0 0 0 0 0 0 0 0 0 0 0 0 0 0 0 0 0 0 0 0 0 0 0 0 0 0 0
0 0 0 0 0 0 0 0 0 0 0 0 0 0 0 0 0 0 0 0 0 0 0 0 0 0 0 0 0 0 0 0 0 0 0 0 0 0 0 0 0 0 0 0
0 0 0 0 0 0 0 0 0 0 0 0 0 0 0 0 0 0 0 0 0 0 0 0 0 0 0 0 0 0 0 0 0 0 0 0 0 0 0 0 0 0 0 0
0 0 0 0 0 0 0 0 0 0 0 0 0 0 0 0 0 0 0 0 0 0 0 0 0 0 0 0 0 0 0 0 0 0 0 0 0 0 0 0 0 0 0 0
0 0 0 0 0 0 0 0 0 0 0 0 0 0 0 0 0 0 0 0 0 0 0 0 0 0 0 0 0 0 0 0 0 0 0 0 0 0 0 0 0 0 0 0
0 0 0 0 0 0 0 0 0 0 0 0 0 0 0 0 0 0 0 0 0 0 0 0 0 0 0 0 0 0 0 0 0 0 0 0 0 0 0 0 0 0 0 0
0 0 0 0 0 0 0 0 0 0 0 0 0 0 0 0 0 0 0 0 0 0 0 0 0 0 0 0 0 0 0 0 0 0 0 0 0 0 0 0 0 0 0 0
0 0 0 0 0 0 0 0 0 0 0 0 0 0 0 0 0 0 0 0 0 0 0 0 0 0 0 0 0 0 0 0 0 0 0 0 0 0 0 0 0 0 0 0
0 0 0 0 0 0 0 0 0 0 0 0 0 0 0 0 0 0 0 0 0 0 0 0 0 0 0 0 0 0 0 0 0 0 0 0 0 0 0 0 0 0 0 0
0 0 0 0 0 0 0 0 0 0 0 0 0 0 0 0 0 0 0 0 0 0 0 0 0 0 0 0 0 0 0 0 0 0 0 0 0 0 0 0 0 0 0 0
0 0 0 0 0 0 0 0 0 0 0 0 0 0 0 0 0 0 0 0 0 0 0 0 0 0 0 0 0 0 0 0 0 0 0 0 0 0 0 0 0 0 0 0
0 0 0 0 0 0 0 0 0 0 0 0 0 0 0 0 0 0 0 0 0 0 0 0 0 0 0 0 0 0 0 0 0 0 0 0 0 0 0 0 0 0 0 0
0 0 0 0 0 0 0 0 0 0 0 0 0 0 0 0 0 0 0 0 0 0 0 0 0 0 0 0 0 0 0 0 0 0 0 0 0 0 0 0 0 0 0 0
0 0 0 0 0 0 0 0 0 0 0 0 0 0 0 0 0 0 0 0 0 0 0 0 0 0 0 0 0 0 0 0 0 0 0 0 0 0 0 0 0 0 0 0
0 0 0 0 0 0 0 0 0 0 0 0 0 0 0 0 0 0 0 0 0 0 0 0 0 0 0 0 0 0 0 0 0 0 0 0 0 0 0 0 0 0 0 0
0 0 0 0 0 0 0 0 0 0 0 0 0 0 0 0 0 0 0 0 0 0 0 0 0 0 0 0 0 0 0 0 0 0 0 0 0 0 0 0 0 0 0 0
0 0 0 0 0 0 0 0 0 0 0 0 0 0 0 0 0 0 0 0 0 0 0 0 0 0 0 0 0 0 0 0 0 0 0 0 0 0 0 0 0 0 0 0
0 0 0 0 0 0 0 0 0 0 0 0 0 0 0 0 0 0 0 0 0 0 0 0 0 0 0 0 0 0 0 0 0 0 0 0 0 0 0 0 0 0 0 0
0 0 0 0 0 0 0 0 0 0 0 0 0 0 0 0 0 0 0 0 0 0 0 0 0 0 0 0 0 0 0 0 0 0 0 0 0 0 0 0 0 0 0 0
0 0 0 0 0 0 0 0 0 0 0 0 0 0 0 0 0 0 0 0 0 0 0 0 0 0 0 0 0 0 0 0 0 0 0 0 0 0 0 0 0 0 0 0
0 0 0 0 0 0 0 0 0 0 0 0 0 0 0 0 0 0 0 0 0 0 0 0 0 0 0 0 0 0 0 0 0 0 0 0 0 0 0 0 0 0 0 0
0 0 0 0 0 0 0 0 0 0 0 0 0 0 0 0 0 0 0 0 0 0 0 0 0 0 0 0 0 0 0 0 0 0 0 0 0 0 0 0 0 0 0 0

GEFSNGP_con_probscp_078.txt.gz
Probability
0 0 0 0 0 0 0 0 0 0 0 1 0 0 0 1 3 4 6 10 15 16 14 13 12 12 13 14 19 27 33 37 39 40 41 41 38 30 22 15 9 5 6 6
0 0 0 0 0 0 0 0 0 0 1 2 1 0 1 2 2 3 4 7 10 13 13 12 11 11 14 16 22 31 37 37 37 40 42 41 36 28 20 14 9 7 7 8
0 0 0 0 0 0 0 0 0 1 3 5 4 2 3 3 4 3 3 5 7 9 11 11 9 10 14 18 25 34 39 37 36 39 41 39 33 24 17 14 11 9 10 10
1 0 0 0 0 0 0 0 0 1 3 6 5 4 4 4 5 5 4 6 8 9 11 11 10 10 15 20 25 32 35 34 33 32 33 32 28 22 18 16 15 13 13 13
1 0 0 0 0 0 0 0 0 1 3 5 4 3 2 3 3 5 6 8 10 11 12 13 11 10 14 20 23 25 25 24 22 21 21 23 22 21 21 20 18 15 15 15
1 0 0 0 0 0 0 0 0 1 3 4 4 3 2 1 2 3 5 8 9 9 10 11 11 10 11 14 16 14 11 10 9 10 13 15 16 18 20 20 19 15 15 16
0 0 0 1 0 0 1 0 0 1 3 3 5 6 3 1 2 3 3 5 7 7 7 8 9 8 8 9 8 5 3 3 3 5 7 9 11 13 14 15 14 13 13 15
0 0 1 1 1 2 2 1 1 2 2 3 5 5 2 1 2 2 2 2 4 5 5 6 7 6 6 6 4 2 2 2 2 2 3 4 6 8 9 9 9 8 9 10
0 0 1 1 2 2 2 1 1 1 2 3 3 2 1 2 2 2 2 1 1 2 2 4 4 3 3 3 3 2 2 2 1 1 1 2 3 4 5 5 4 5 6 6
0 0 0 0 1 1 1 1 2 3 3 3 2 1 1 1 1 1 1 1 0 0 0 1 1 1 1 1 1 1 2 2 2 2 2 2 2 2 2 2 3 4 5 5
0 0 0 0 0 0 0 2 3 4 4 4 4 2 1 0 0 0 0 0 0 0 0 0 0 0 0 0 0 1 1 1 1 1 1 2 1 1 2 2 2 3 3 3
1 0 0 0 0 0 1 2 4 4 4 4 4 1 0 0 0 0 0 0 0 0 0 0 0 0 0 0 0 0 0 0 0 0 0 0 0 1 1 1 1 1 1 1
1 0 0 0 0 0 1 2 3 2 3 3 2 1 0 0 0 0 0 0 0 0 0 0 0 0 0 0 0 0 0 0 0 0 0 0 0 0 0 0 0 0 0 0
1 0 0 0 1 1 1 2 2 1 1 1 1 0 0 0 0 0 0 0 0 0 0 0 0 0 0 0 0 0 0 0 0 0 0 0 0 0 0 0 0 0 0 0
0 0 0 1 2 3 2 1 1 0 0 0 0 0 0 0 0 0 0 0 0 0 0 0 0 0 0 0 0 0 0 0 0 0 0 0 0 0 0 0 0 0 0 0
0 0 1 2 2 2 1 1 0 0 0 0 0 0 0 0 0 0 0 0 0 0 0 0 0 0 0 0 0 0 0 0 0 0 0 0 0 0 0 0 0 0 0 0
0 0 1 1 1 0 0 0 0 0 0 0 0 0 0 0 0 0 0 0 0 0 0 0 0 0 0 0 0 0 0 0 0 0 0 0 0 0 0 0 0 0 0 0
0 0 0 0 0 0 0 0 0 0 0 0 0 0 0 0 0 0 0 0 0 0 0 0 0 0 0 0 0 0 0 0 0 0 0 0 0 0 0 0 0 0 0 0
0 0 0 0 0 0 0 0 0 0 0 0 0 0 0 0 0 0 0 0 0 0 0 0 0 0 0 0 0 0 0 0 0 0 0 0 0 0 0 0 0 0 0 0
0 0 0 0 0 0 0 0 0 0 0 0 0 0 0 0 0 0 0 0 0 0 0 0 0 0 0 0 0 0 0 0 0 0 0 0 0 0 0 0 0 0 0 0
0 0 0 0 0 0 0 0 0 0 0 0 0 0 0 0 0 0 0 0 0 0 0 0 0 0 0 0 0 0 0 0 0 0 0 0 0 0 0 0 0 0 0 0
0 0 0 0 0 0 0 0 0 0 0 0 0 0 0 0 0 0 0 0 0 0 0 0 0 0 0 0 0 0 0 0 0 0 0 0 0 0 0 0 0 0 0 0
0 0 0 0 0 0 0 0 0 0 0 0 0 0 0 0 0 0 0 0 0 0 0 0 0 0 0 0 0 0 0 0 0 0 0 0 0 0 0 0 0 0 0 0
0 0 0 0 0 0 0 0 0 0 0 0 0 0 0 0 0 0 0 0 0 0 0 0 0 0 0 0 0 0 0 0 0 0 0 0 0 0 0 0 0 0 0 0
0 0 0 0 0 0 0 0 0 0 0 0 0 0 0 0 0 0 0 0 0 0 0 0 0 0 0 0 0 0 0 0 0 0 0 0 0 0 0 0 0 0 0 0
0 0 0 0 0 0 0 0 0 0 0 0 0 0 0 0 0 0 0 0 0 0 0 0 0 0 0 0 0 0 0 0 0 0 0 0 0 0 0 0 0 0 0 0
0 0 0 0 0 0 0 0 0 0 0 0 0 0 0 0 0 0 0 0 0 0 0 0 0 0 0 0 0 0 0 0 0 0 0 0 0 0 0 0 0 0 0 0

GEFSNGP_con_probscp_084.txt.gz
Probability
0 0 0 0 0 0 0 0 0 3 9 17 22 19 13 13 17 20 21 24 31 39 44 43 39 33 30 30 33 39 45 48 51 54 57 59 60 63 67 68 70 73 70 64
0 0 0 0 0 0 0 0 1 5 15 26 29 23 17 17 20 23 25 27 31 39 45 47 44 38 35 35 38 43 48 51 52 55 61 63 63 66 69 71 74 75 72 67
0 0 0 1 1 1 0 1 5 12 26 39 43 36 29 28 30 34 35 35 39 44 48 50 49 45 42 43 46 49 51 52 52 56 61 62 62 64 67 70 73 75 73 69
1 0 1 2 2 1 1 3 12 25 38 48 51 47 41 38 40 41 39 38 40 42 44 45 46 46 45 45 47 48 50 50 50 53 55 55 54 56 60 62 64 67 67 66
2 2 2 3 3 1 2 7 20 35 46 47 45 42 40 38 38 35 32 30 31 31 33 36 38 39 39 39 39 41 43 43 44 45 46 45 45 47 50 51 52 53 54 54
4 3 3 3 3 1 4 13 26 39 45 42 36 34 32 29 26 23 22 24 25 25 27 28 29 29 28 27 28 30 31 31 32 32 33 33 35 37 39 40 39 39 39 40
5 5 7 9 8 9 14 24 32 36 38 39 37 33 29 23 18 16 16 18 20 20 21 21 21 20 20 19 18 19 19 20 19 19 19 20 22 24 25 26 26 26 28 30
15 16 20 20 17 18 23 30 33 32 35 39 37 31 25 21 17 15 13 12 12 13 13 12 12 12 12 12 11 11 11 11 10 9 8 9 10 10 11 13 14 16 19 22
28 30 31 27 21 16 19 27 33 34 38 38 31 24 20 17 14 12 10 8 7 7 7 5 4 4 5 5 5 5 5 4 3 2 2 3 3 3 4 6 7 8 11 12
25 26 26 22 16 11 15 24 32 36 38 34 24 18 16 12 9 7 5 4 3 3 3 2 2 2 3 3 2 1 1 0 0 0 1 1 2 2 3 3 3 3 4 5
11 13 13 13 12 13 20 25 30 33 32 25 16 13 11 9 6 4 3 2 2 2 2 2 2 3 3 2 1 0 0 0 0 0 0 0 1 2 2 1 1 1 1 1
3 4 7 9 12 18 21 23 24 25 22 15 11 10 9 8 6 4 3 3 2 2 1 1 1 2 1 1 1 0 0 0 0 0 0 0 0 1 1 0 0 0 0 0
1 2 4 6 11 15 17 17 17 15 12 10 9 8 8 6 5 3 2 1 1 1 0 0 0 0 0 0 0 0 0 0 0 0 0 0 0 0 0 0 0 0 0 0
1 1 2 4 7 9 12 12 10 7 6 6 6 5 4 3 3 1 1 0 0 0 0 0 0 0 0 0 0 0 0 0 0 0 0 0 0 0 0 0 0 0 0 0
0 1 2 4 5 6 8 7 4 2 1 2 2 1 1 1 1 0 0 0 0 0 0 0 0 0 0 0 0 0 0 0 0 0 0 0 0 0 0 0 0 0 0 0
0 1 3 4 4 4 4 3 1 0 0 0 0 0 0 0 0 0 0 0 0 0 0 0 0 0 0 0 0 0 0 0 0 0 0 0 0 0 0 0 0 0 0 0
1 2 4 3 3 3 1 1 0 0 0 0 0 0 0 0 0 0 0 0 0 0 0 0 0 0 0 0 0 0 0 0 0 0 0 0 0 0 0 0 0 0 0 0
1 2 2 2 2 2 1 0 0 0 0 0 0 0 0 0 0 0 0 0 0 0 0 0 0 0 0 0 0 0 0 0 0 0 0 0 0 0 0 0 0 0 0 0
1 1 2 2 2 1 0 0 0 0 0 0 0 0 0 0 0 0 0 0 0 0 0 0 0 0 0 0 0 0 0 0 0 0 0 0 0 0 0 0 0 0 0 0
2 2 2 2 1 0 0 0 0 0 0 0 0 0 0 0 0 0 0 0 0 0 0 0 0 0 0 0 0 0 0 0 0 0 0 0 0 0 0 0 0 0 0 0
1 1 1 1 0 0 0 0 0 0 0 0 0 0 0 0 0 0 0 0 0 0 0 0 0 0 0 0 0 0 0 0 0 0 0 0 0 0 0 0 0 0 0 0
0 0 0 0 0 0 0 0 0 0 0 0 0 0 0 0 0 0 0 0 0 0 0 0 0 0 0 0 0 0 0 0 0 0 0 0 0 0 0 0 0 0 0 0
0 0 0 0 0 0 0 0 0 0 0 0 0 0 0 0 0 0 0 0 0 0 0 0 0 0 0 0 0 0 0 0 0 0 0 0 0 0 0 0 0 0 0 0
0 0 0 0 0 0 0 0 0 0 0 0 0 0 0 0 0 0 0 0 0 0 0 0 0 0 0 0 0 0 0 0 0 0 0 0 0 0 0 0 0 0 0 0
0 0 0 0 0 0 0 0 0 1 1 1 0 0 0 0 0 0 0 0 0 0 0 0 0 0 0 0 0 0 0 0 0 0 0 0 0 0 0 0 0 0 0 0
0 0 0 0 0 0 0 0 0 1 2 1 0 0 0 0 0 0 0 0 0 0 0 0 0 0 0 0 0 0 0 0 0 0 0 0 0 0 0 0 0 0 0 0
0 0 0 0 0 0 0 0 0 1 2 1 0 0 0 0 0 0 0 0 0 0 0 0 0 0 0 0 0 0 0 0 0 0 0 0 0 0 0 0 0 0 0 0

GEFSNGP_con_probscp_090.txt.gz
Probability
0 0 0 0 0 0 0 0 0 1 2 3 3 4 4 4 5 5 4 4 5 5 4 3 3 4 4 4 5 7 7 6 5 3 1 2 5 6 8 9 8 6 3 2
0 0 0 0 0 1 1 1 1 2 3 4 4 5 6 7 7 6 5 5 6 5 4 2 3 4 4 4 5 7 7 5 4 3 2 4 6 7 7 7 7 5 4 4
0 0 0 1 1 2 4 4 5 6 8 9 8 7 8 10 11 9 5 5 5 5 3 2 2 3 4 4 4 5 5 4 4 4 5 7 8 7 6 7 6 6 6 7
0 0 0 1 2 4 9 11 11 14 19 20 17 13 10 10 12 9 4 2 2 2 1 2 2 3 4 4 3 3 4 4 4 5 6 7 7 6 6 8 8 8 8 9
0 0 0 1 2 7 14 19 19 21 27 28 24 18 10 7 8 6 2 0 0 0 0 1 2 2 3 3 1 1 2 2 3 4 5 5 5 4 5 6 7 6 6 6
0 0 0 1 3 6 14 21 22 24 26 24 20 14 7 3 3 2 1 0 0 0 0 0 1 1 1 1 1 0 0 0 1 2 3 3 2 2 2 2 3 2 2 2
0 0 0 1 3 5 9 15 18 21 21 17 11 6 3 1 1 1 0 0 0 0 0 0 0 0 0 0 0 0 0 0 0 0 1 1 1 1 1 0 0 0 0 0
0 0 0 2 4 5 7 10 14 16 16 12 7 3 2 1 0 0 0 0 0 0 0 0 0 0 0 0 0 0 0 0 0 0 0 0 0 0 0 0 0 0 0 0
1 1 2 3 5 6 6 8 11 12 10 7 4 3 2 1 0 0 0 0 0 0 0 0 0 0 0 0 0 0 0 0 0 0 0 0 0 0 0 0 0 0 0 0
2 2 3 4 6 6 6 6 7 7 5 2 2 2 2 1 0 0 0 0 0 0 0 0 0 0 0 0 0 0 0 0 0 0 0 0 0 0 0 0 0 0 0 0
1 1 1 2 4 6 6 5 4 2 1 0 0 1 1 0 0 0 0 0 0 0 0 0 0 0 0 0 0 0 0 0 0 0 0 0 0 0 0 0 0 0 0 0
0 0 0 0 1 3 4 3 2 1 0 0 0 0 0 0 0 0 0 0 0 0 0 0 0 0 0 0 0 0 0 0 0 0 0 0 0 0 0 0 0 0 0 0
0 0 0 1 1 1 1 1 1 0 0 0 0 0 0 0 0 0 0 0 0 0 0 0 0 0 0 0 0 0 0 0 0 0 0 0 0 0 0 0 0 0 0 0
0 0 0 0 0 0 0 0 0 0 0 0 0 0 0 0 0 0 0 0 0 0 0 0 0 0 0 0 0 0 0 0 0 0 0 0 0 0 0 0 0 0 0 0
0 0 0 0 0 0 1 0 0 0 0 0 0 0 0 0 0 0 0 0 0 0 0 0 0 0 0 0 0 0 0 0 0 0 0 0 0 0 0 0 0 0 0 0
0 0 0 0 0 0 0 0 0 0 0 0 0 0 0 0 0 0 0 0 0 0 0 0 0 0 0 0 0 0 0 0 0 0 0 0 0 0 0 0 0 0 0 0
0 0 0 0 0 0 0 0 0 0 0 0 0 0 0 0 0 0 0 0 0 0 0 0 0 0 0 0 0 0 0 0 0 0 0 0 0 0 0 0 0 0 0 0
0 0 0 0 0 0 0 0 0 0 0 0 0 0 0 0 0 0 0 0 0 0 0 0 0 0 0 0 0 0 0 0 0 0 0 0 0 0 0 0 0 0 0 0
0 0 0 0 0 0 0 0 0 0 0 0 0 0 0 0 0 0 0 0 0 0 0 0 0 0 0 0 0 0 0 0 0 0 0 0 0 0 0 0 0 0 0 0
0 0 0 0 0 0 0 0 0 0 0 0 0 0 0 0 0 0 0 0 0 0 0 0 0 0 0 0 0 0 0 0 0 0 0 0 0 0 0 0 0 0 0 0
0 0 0 0 0 0 0 0 0 0 0 0 0 0 0 0 0 0 0 0 0 0 0 0 0 0 0 0 0 0 0 0 0 0 0 0 0 0 0 0 0 0 0 0
0 0 0 0 0 0 0 0 0 0 0 0 0 0 0 0 0 0 0 0 0 0 0 0 0 0 0 0 0 0 0 0 0 0 0 0 0 0 0 0 0 0 0 0
0 0 0 0 0 0 0 0 0 0 0 0 0 0 0 0 0 0 0 0 0 0 0 0 0 0 0 0 0 0 0 0 0 0 0 0 0 0 0 0 0 0 0 0
0 0 0 0 0 0 0 0 0 0 0 0 0 0 0 0 0 0 0 0 0 0 0 0 0 0 0 0 0 0 0 0 0 0 0 0 0 0 0 0 0 0 0 0
0 0 0 0 0 0 0 0 0 0 0 0 0 0 0 0 0 0 0 0 0 0 0 0 0 0 0 0 0 0 0 0 0 0 0 0 0 0 0 0 0 0 0 0
0 0 0 0 0 0 0 0 0 0 0 0 0 0 0 0 0 0 0 0 0 0 0 0 0 0 0 0 0 0 0 0 0 0 0 0 0 0 0 0 0 0 0 0
0 0 0 0 0 0 0 0 0 0 0 0 0 0 0 0 0 0 0 0 0 0 0 0 0 0 0 0 0 0 0 0 0 0 0 0 0 0 0 0 0 0 0 0

GEFSNGP_con_probscp_096.txt.gz
Probability
0 0 0 0 0 0 0 0 0 0 0 0 1 2 1 0 0 0 0 0 0 0 0 0 0 0 0 0 0 1 1 1 3 3 3 2 1 0 0 0 0 0 0 0
0 0 0 0 0 0 0 0 0 0 0 0 1 1 1 1 0 0 1 1 0 0 0 0 0 0 0 0 0 1 1 1 2 2 2 1 1 0 0 0 0 0 0 0
0 0 0 0 0 0 0 0 0 0 1 1 2 3 3 2 1 1 2 1 0 0 0 0 0 0 0 0 0 0 0 1 1 1 1 0 0 0 0 0 1 1 1 0
0 0 0 0 1 1 0 0 0 0 2 3 5 7 6 5 3 2 2 1 0 0 0 0 0 0 0 0 0 0 0 0 0 0 0 0 0 0 0 1 2 2 1 1
0 0 0 0 1 2 1 0 0 1 3 6 8 8 7 5 3 2 1 0 0 0 0 0 0 0 0 0 0 0 0 0 0 0 0 0 0 0 0 1 2 2 1 0
0 0 0 0 1 2 1 0 1 3 6 8 8 7 6 4 2 0 0 0 0 0 0 0 0 0 0 0 0 0 0 0 0 0 0 0 0 0 0 1 1 1 0 0
0 0 0 0 0 1 1 1 2 3 5 6 5 4 3 2 1 0 0 0 0 0 0 0 0 0 0 0 0 0 0 0 0 0 0 0 0 0 0 0 0 0 0 0
0 0 0 0 0 0 0 0 1 1 2 3 3 2 2 1 0 0 0 0 0 0 0 0 0 0 0 0 0 0 0 0 0 0 0 0 0 0 0 0 0 0 0 0
0 0 0 0 0 0 0 0 0 0 1 2 2 1 1 0 0 0 0 0 0 0 0 0 0 0 0 0 0 0 0 0 0 0 0 0 0 0 0 0 0 0 0 0
0 0 0 0 0 0 0 0 0 0 1 2 1 0 0 0 0 0 0 0 0 0 0 0 0 0 0 0 0 0 0 0 0 0 0 0 0 0 0 0 0 0 0 0
0 0 0 0 0 0 0 0 0 0 1 1 0 0 0 0 0 0 0 0 0 0 0 0 0 0 0 0 0 0 0 0 0 0 0 0 0 0 0 0 0 0 0 0
0 0 0 0 0 0 0 0 0 0 1 0 0 0 0 0 0 0 0 0 0 0 0 0 0 0 0 0 0 0 0 0 0 0 0 0 0 0 0 0 0 0 0 0
0 0 0 0 0 0 0 0 0 0 0 0 0 0 0 0 0 0 0 0 0 0 0 0 0 0 0 0 0 0 0 0 0 0 0 0 0 0 0 0 0 0 0 0
0 0 0 0 0 0 0 0 0 0 0 0 0 0 0 0 0 0 0 0 0 0 0 0 0 0 0 0 0 0 0 0 0 0 0 0 0 0 0 0 0 0 0 0
0 0 0 0 0 0 0 0 0 0 0 0 0 0 0 0 0 0 0 0 0 0 0 0 0 0 0 0 0 0 0 0 0 0 0 0 0 0 0 0 0 0 0 0
0 0 0 0 0 0 0 0 0 0 0 0 0 0 0 0 0 0 0 0 0 0 0 0 0 0 0 0 0 0 0 0 0 0 0 0 0 0 0 0 0 0 0 0
0 0 0 0 0 0 0 0 0 0 0 0 0 0 0 0 0 0 0 0 0 0 0 0 0 0 0 0 0 0 0 0 0 0 0 0 0 0 0 0 0 0 0 0
0 0 0 0 0 0 0 0 0 0 0 0 0 0 0 0 0 0 0 0 0 0 0 0 0 0 0 0 0 0 0 0 0 0 0 0 0 0 0 0 0 0 0 0
0 0 0 0 0 0 0 0 0 0 0 0 0 0 0 0 0 0 0 0 0 0 0 0 0 0 0 0 0 0 0 0 0 0 0 0 0 0 0 0 0 0 0 0
0 0 0 0 0 0 0 0 0 0 0 0 0 0 0 0 0 0 0 0 0 0 0 0 0 0 0 0 0 0 0 0 0 0 0 0 0 0 0 0 0 0 0 0
0 0 0 0 0 0 0 0 0 0 0 0 0 0 0 0 0 0 0 0 0 0 0 0 0 0 0 0 0 0 0 0 0 0 0 0 0 0 0 0 0 0 0 0
0 0 0 0 0 0 0 0 0 0 0 0 0 0 0 0 0 0 0 0 0 0 0 0 0 0 0 0 0 0 0 0 0 0 0 0 0 0 0 0 0 0 0 0
0 0 0 0 0 0 0 0 0 0 0 0 0 0 0 0 0 0 0 0 0 0 0 0 0 0 0 0 0 0 0 0 0 0 0 0 0 0 0 0 0 0 0 0
0 0 0 0 0 0 0 0 0 0 0 0 0 0 0 0 0 0 0 0 0 0 0 0 0 0 0 0 0 0 0 0 0 0 0 0 0 0 0 0 0 0 0 0
0 0 0 0 0 0 0 0 0 0 0 0 0 0 0 0 0 0 0 0 0 0 0 0 0 0 0 0 0 0 0 0 0 0 0 0 0 0 0 0 0 0 0 0
0 0 0 0 0 0 0 0 0 0 0 0 0 0 0 0 0 0 0 0 0 0 0 0 0 0 0 0 0 0 0 0 0 0 0 0 0 0 0 0 0 0 0 0
0 0 0 0 0 0 0 0 0 0 0 0 0 0 0 0 0 0 0 0 0 0 0 0 0 0 0 0 0 0 0 0 0 0 0 0 0 0 0 0 0 0 0 0

GEFSNGP_con_probscp_102.txt.gz
Probability
0 0 0 0 0 0 0 0 0 0 0 1 3 7 13 18 18 15 13 12 10 11 11 9 10 12 13 14 15 13 10 9 10 9 7 9 14 16 13 9 7 6 7 7
0 0 0 0 0 0 0 0 0 0 0 2 5 9 14 19 20 18 16 14 13 13 14 14 16 17 17 17 19 18 15 13 12 10 8 9 12 13 13 12 11 10 10 9
0 0 0 0 0 0 0 0 0 0 1 3 7 12 16 19 20 20 19 19 20 22 22 21 22 21 19 17 19 20 18 16 15 13 11 11 12 13 15 16 15 13 11 10
0 0 0 0 0 0 0 0 0 0 2 7 11 15 19 21 22 23 26 28 29 29 26 24 23 23 20 18 19 19 18 17 17 15 13 13 15 16 17 17 14 11 8 7
0 0 0 0 0 1 1 1 3 5 7 12 16 18 21 25 28 31 34 35 33 29 25 23 23 23 22 21 21 19 17 17 17 15 14 14 15 14 14 12 9 6 5 5
0 0 0 0 0 1 2 4 10 14 15 17 19 22 28 32 35 37 38 36 31 26 23 21 21 22 23 22 21 18 16 15 14 12 11 10 10 9 8 6 4 3 2 2
0 0 0 0 0 1 4 10 16 19 22 24 27 33 37 36 35 34 32 30 26 23 21 19 18 19 20 19 17 14 12 11 8 6 5 5 5 4 3 3 2 1 1 0
0 0 0 0 0 1 6 11 14 17 22 27 32 36 36 32 28 25 22 19 18 17 16 16 16 15 14 12 10 7 7 6 3 1 1 2 3 3 2 1 1 0 0 0
0 0 0 0 0 1 3 5 7 10 16 20 22 24 24 22 20 18 15 12 11 11 11 11 11 9 7 5 3 3 3 2 1 0 1 1 1 1 0 0 0 0 0 0
0 0 0 0 0 0 0 1 2 5 8 9 9 12 16 16 15 14 13 10 7 7 6 4 4 4 3 1 1 1 1 1 0 0 0 0 0 0 0 0 0 0 0 0
0 0 0 0 0 0 1 1 1 2 3 4 6 8 11 12 11 9 8 6 4 3 2 1 0 1 1 0 0 0 0 0 0 0 0 0 0 0 0 0 0 0 0 0
0 0 0 0 0 0 1 2 2 1 1 3 4 5 5 5 5 4 3 2 1 0 0 0 0 0 0 0 0 0 0 0 0 0 0 0 0 0 0 0 0 0 0 0
0 0 0 0 0 0 1 2 2 1 0 1 1 1 1 1 1 1 0 0 0 0 0 0 0 0 0 0 0 0 0 0 0 0 0 0 0 0 0 0 0 0 0 0
0 0 0 0 0 0 0 1 1 0 0 0 0 0 0 0 0 0 0 0 0 0 0 0 0 0 0 0 0 0 0 0 0 0 0 0 0 0 0 0 0 0 0 0
0 0 0 0 0 0 0 0 0 0 0 0 0 0 0 0 0 0 0 0 0 0 0 0 0 0 0 0 0 0 0 0 0 0 0 0 0 0 0 0 0 0 0 0
0 0 0 0 0 0 0 0 0 0 0 0 0 0 0 0 0 0 0 0 0 0 0 0 0 0 0 0 0 0 0 0 0 0 0 0 0 0 0 0 0 0 0 0
0 0 0 0 0 0 0 0 0 0 0 0 0 0 0 0 0 0 0 0 0 0 0 0 0 0 0 0 0 0 0 0 0 0 0 0 0 0 0 0 0 0 0 0
0 0 0 0 0 0 0 0 0 0 0 0 0 0 0 0 0 0 0 0 0 0 0 0 0 0 0 0 0 0 0 0 0 0 0 0 0 0 0 0 0 0 0 0
0 0 0 0 0 0 0 0 0 0 0 0 0 0 0 0 0 0 0 0 0 0 0 0 0 0 0 0 0 0 0 0 0 0 0 0 0 0 0 0 0 0 0 0
0 0 0 0 0 0 0 0 0 0 0 0 0 0 0 0 0 0 0 0 0 0 0 0 0 0 0 0 0 0 0 0 0 0 0 0 0 0 0 0 0 0 0 0
0 0 0 0 0 0 0 0 0 0 0 0 0 0 0 0 0 0 0 0 0 0 0 0 0 0 0 0 0 0 0 0 0 0 0 0 0 0 0 0 0 0 0 0
0 0 0 0 0 0 0 0 0 0 0 0 0 0 0 0 0 0 0 0 0 0 0 0 0 0 0 0 0 0 0 0 0 0 0 0 0 0 0 0 0 0 0 0
0 0 0 0 0 0 0 0 0 0 0 0 0 0 0 0 0 0 0 0 0 0 0 0 0 0 0 0 0 0 0 0 0 0 0 0 0 0 0 0 0 0 0 0
0 0 0 0 0 0 0 0 0 0 0 0 0 0 0 0 0 0 0 0 0 0 0 0 0 0 0 0 0 0 0 0 0 0 0 0 0 0 0 0 0 0 0 0
0 0 0 0 0 0 0 0 0 0 0 0 0 0 0 0 0 0 0 0 0 0 0 0 0 0 0 0 0 0 0 0 0 0 0 0 0 0 0 0 0 0 0 0
0 0 0 0 0 0 0 0 0 0 0 0 0 0 0 0 0 0 0 0 0 0 0 0 0 0 0 0 0 0 0 0 0 0 0 0 0 0 0 0 0 0 0 0
0 0 0 0 0 0 0 0 0 0 0 0 0 0 0 0 0 0 0 0 0 0 0 0 0 0 0 0 0 0 0 0 0 0 0 0 0 0 0 0 0 0 0 0

GEFSNGP_con_probscp_108.txt.gz
Probability
1 1 1 0 0 0 0 0 0 0 2 6 10 14 19 26 31 35 37 37 40 44 45 40 33 28 22 21 21 20 18 19 20 18 15 15 15 12 12 12 11 12 12 10
0 0 0 0 0 0 0 0 0 1 4 8 12 17 23 29 36 40 43 44 46 48 49 47 42 36 30 26 27 26 24 20 19 19 18 17 16 14 14 15 14 14 14 11
0 0 0 0 1 1 1 0 1 3 7 13 18 23 28 35 44 50 53 53 53 53 54 54 51 46 40 35 35 34 29 24 22 23 23 21 17 16 17 18 18 17 15 11
0 0 0 0 1 2 2 2 4 9 14 21 26 29 34 42 52 58 60 60 59 57 57 56 53 49 43 39 39 37 33 30 30 28 25 22 19 19 22 23 23 21 15 9
0 0 0 0 1 1 2 5 14 23 29 33 35 35 40 50 59 63 63 64 64 59 57 57 54 50 43 39 39 38 36 35 34 31 27 24 24 25 25 25 22 19 12 6
0 0 0 0 0 0 2 9 25 41 48 49 48 47 50 57 62 64 64 64 64 60 58 57 55 51 45 41 38 38 37 35 33 31 29 28 28 26 23 19 13 8 5 3
0 0 0 1 2 5 10 20 33 45 53 56 56 55 57 60 60 60 61 60 58 56 55 54 52 49 44 40 37 35 34 32 29 26 25 24 24 20 15 9 4 1 0 0
0 1 4 6 7 10 18 26 27 31 38 44 48 50 53 54 53 52 52 50 49 47 47 47 46 43 39 36 33 31 28 25 22 18 15 14 14 11 6 3 1 0 0 0
0 3 8 10 10 11 14 16 16 15 19 26 34 39 42 43 43 41 39 37 37 37 37 37 37 35 32 30 27 23 20 16 12 9 8 6 5 4 2 1 0 0 0 0
1 4 7 8 8 7 7 7 8 9 12 19 27 30 30 30 30 29 27 25 26 26 27 27 26 25 23 22 18 14 10 6 3 3 3 2 1 1 1 0 0 0 0 0
1 2 4 4 4 3 4 5 5 7 11 19 24 25 22 20 19 19 18 17 16 16 16 15 13 13 12 11 9 5 3 1 0 0 0 0 0 0 0 0 0 0 0 0
0 1 2 2 1 1 1 1 1 4 10 16 19 19 16 13 11 11 10 10 9 8 7 4 3 3 3 3 3 2 1 0 0 0 0 0 0 0 0 0 0 0 0 0
0 0 0 0 0 0 0 0 1 5 9 12 13 12 10 8 6 5 5 4 4 3 2 0 0 0 0 0 1 1 0 0 0 0 0 0 0 0 0 0 0 0 0 0
0 0 0 0 0 0 0 1 4 7 9 9 8 7 5 4 3 3 2 2 1 1 0 0 0 0 0 0 0 0 0 0 0 0 0 0 0 0 0 0 0 0 0 0
0 0 0 0 0 0 0 2 5 6 6 5 4 4 2 1 1 1 1 1 0 0 0 0 0 0 0 0 0 0 0 0 0 0 0 0 0 0 0 0 0 0 0 0
0 0 0 0 0 0 0 2 4 4 2 2 2 1 0 0 0 0 0 0 0 0 0 0 0 0 0 0 0 0 0 0 0 0 0 0 0 0 0 0 0 0 0 0
0 0 0 0 0 0 0 2 3 2 0 0 0 0 0 0 0 0 0 0 0 0 0 0 0 0 0 0 0 0 0 0 0 0 0 0 0 0 0 0 0 0 0 0
0 0 0 0 0 0 1 2 3 1 0 0 0 0 0 0 0 0 0 0 0 0 0 0 0 0 0 0 0 0 0 0 0 0 0 0 0 0 0 0 0 0 0 0
0 0 0 1 1 2 2 3 2 1 0 0 0 0 0 0 0 0 0 0 0 0 0 0 0 0 0 0 0 0 0 0 0 0 0 0 0 0 0 0 0 0 0 0
0 0 0 1 2 3 3 2 1 0 0 0 0 0 0 0 0 0 0 0 0 0 0 0 0 0 0 0 0 0 0 0 0 0 0 0 0 0 0 0 0 0 0 0
0 0 1 1 1 1 1 0 0 0 0 0 0 0 0 0 0 0 0 0 0 0 0 0 0 0 0 0 0 0 0 0 0 0 0 0 0 0 0 0 0 0 0 0
1 1 1 0 0 0 0 0 0 0 0 0 0 0 0 0 0 0 0 0 0 0 0 0 0 0 0 0 0 0 0 0 0 0 0 0 0 0 0 0 0 0 0 0
2 2 1 0 0 0 0 0 0 0 0 0 0 0 0 0 0 0 0 0 0 0 0 0 0 0 0 0 0 0 0 0 0 0 0 0 0 0 0 0 0 0 0 0
2 2 1 0 0 0 0 0 0 0 0 0 0 0 0 0 0 0 0 0 0 0 0 0 0 0 0 0 0 0 0 0 0 0 0 0 0 0 0 0 0 0 0 0
1 1 0 0 0 0 0 0 0 0 0 0 0 0 0 0 0 0 0 0 0 0 0 0 0 0 0 0 0 0 0 0 0 0 0 0 0 0 0 0 0 0 0 0
0 0 0 0 0 0 0 0 0 0 0 0 0 0 0 0 0 0 0 0 0 0 0 0 0 0 0 0 0 0 0 0 0 0 0 0 0 0 0 0 0 0 0 0
0 0 0 0 0 0 0 0 0 0 0 0 0 0 0 0 0 0 0 0 0 0 0 0 0 0 0 0 0 0 0 0 0 0 0 0 0 0 0 0 0 0 0 0

GEFSNGP_con_probscp_114.txt.gz
Probability
0 0 0 0 0 0 0 0 0 1 2 3 3 3 7 11 13 12 8 5 6 7 8 8 8 9 8 6 6 6 5 4 2 3 3 2 1 1 1 0 0 0 0 0
0 0 0 0 0 0 0 0 0 1 4 6 7 9 14 17 16 12 9 9 9 10 10 8 8 9 9 9 9 9 8 5 4 4 3 1 1 1 1 0 0 0 0 0
0 0 0 0 0 1 3 4 5 8 11 14 14 15 18 19 17 14 12 13 15 15 13 9 8 10 12 13 13 11 9 7 6 5 3 2 1 1 1 1 0 0 0 0
0 0 0 0 1 4 9 11 13 18 23 23 19 17 19 18 17 15 14 15 19 20 16 10 8 11 13 15 14 11 8 7 7 6 4 3 2 2 2 2 0 0 0 0
0 0 0 1 2 5 11 14 17 21 26 24 19 19 20 18 18 17 17 17 20 23 20 14 10 11 14 15 13 11 9 9 8 7 5 4 3 3 2 1 0 0 0 0
0 0 0 1 2 4 7 11 14 17 18 17 16 16 16 17 18 18 18 18 20 22 22 17 12 12 15 14 12 10 9 9 9 7 5 4 4 3 1 0 0 0 0 0
0 0 0 0 1 1 3 6 9 11 10 9 9 9 10 13 15 15 15 16 17 17 18 17 14 13 13 12 10 8 6 6 6 5 4 4 3 2 1 0 0 0 0 0
0 0 0 0 1 0 1 4 7 8 6 5 5 5 7 9 10 10 10 11 12 12 13 13 12 12 10 8 6 5 5 4 3 2 2 2 1 1 0 0 0 0 0 0
0 0 0 0 0 0 1 5 8 6 4 3 2 2 4 5 6 7 7 7 7 9 10 9 8 8 7 4 3 4 4 2 1 1 1 1 0 0 0 0 0 0 0 0
0 0 0 0 0 0 1 3 4 4 2 1 0 0 1 2 4 6 5 4 5 7 8 6 4 3 3 2 2 2 2 1 0 0 0 0 0 0 0 0 0 0 0 0
0 0 0 0 0 0 0 0 1 1 1 0 0 0 1 3 5 6 4 3 4 5 5 3 1 1 0 1 1 1 0 0 0 0 0 0 0 0 0 0 0 0 0 0
0 0 0 0 0 0 0 0 1 2 1 0 0 0 2 4 5 4 3 2 2 2 1 1 0 0 0 0 0 0 0 0 0 0 0 0 0 0 0 0 0 0 0 0
0 0 0 0 0 0 0 1 2 3 2 1 0 0 1 2 2 1 1 1 1 0 0 0 0 0 0 0 0 0 0 0 0 0 0 0 0 0 0 0 0 0 0 0
0 0 0 0 0 0 1 2 3 3 2 1 0 0 0 0 0 0 0 0 0 0 0 0 0 0 0 0 0 0 0 0 0 0 0 0 0 0 0 0 0 0 0 0
0 0 0 0 0 0 1 2 3 2 1 0 0 0 0 0 0 0 0 0 0 0 0 0 0 0 0 0 0 0 0 0 0 0 0 0 0 0 0 0 0 0 0 0
0 0 0 0 0 0 1 2 2 1 0 0 0 0 0 0 0 0 0 0 0 0 0 0 0 0 0 0 0 0 0 0 0 0 0 0 0 0 0 0 0 0 0 0
0 0 0 0 0 0 0 1 1 1 0 0 0 0 0 0 0 0 0 0 0 0 0 0 0 0 0 0 0 0 0 0 0 0 0 0 0 0 0 0 0 0 0 0
0 0 0 0 0 0 0 0 0 0 0 0 0 0 0 0 0 0 0 0 0 0 0 0 0 0 0 0 0 0 0 0 0 0 0 0 0 0 0 0 0 0 0 0
0 0 0 0 0 0 0 0 0 0 0 0 0 0 0 0 0 0 0 0 0 0 0 0 0 0 0 0 0 0 0 0 0 0 0 0 0 0 0 0 0 0 0 0
0 0 0 0 0 0 0 0 0 0 0 0 0 0 0 0 0 0 0 0 0 0 0 0 0 0 0 0 0 0 0 0 0 0 0 0 0 0 0 0 0 0 0 0
0 0 0 0 0 0 0 0 0 0 0 0 0 0 0 0 0 0 0 0 0 0 0 0 0 0 0 0 0 0 0 0 0 0 0 0 0 0 0 0 0 0 0 0
0 0 0 0 0 0 0 0 0 0 0 0 0 0 0 0 0 0 0 0 0 0 0 0 0 0 0 0 0 0 0 0 0 0 0 0 0 0 0 0 0 0 0 0
0 0 0 0 0 0 0 0 0 0 0 0 0 0 0 0 0 0 0 0 0 0 0 0 0 0 0 0 0 0 0 0 0 0 0 0 0 0 0 0 0 0 0 0
0 0 0 0 0 0 0 0 0 0 0 0 0 0 0 0 0 0 0 0 0 0 0 0 0 0 0 0 0 0 0 0 0 0 0 0 0 0 0 0 0 0 0 0
0 0 0 0 0 0 0 0 0 0 0 0 0 0 0 0 0 0 0 0 0 0 0 0 0 0 0 0 0 0 0 0 0 0 0 0 0 0 0 0 0 0 0 0
0 0 0 0 0 0 0 0 0 0 0 0 0 0 0 0 0 0 0 0 0 0 0 0 0 0 0 0 0 0 0 0 0 0 0 0 0 0 0 0 0 0 0 0
0 0 0 0 0 0 0 0 0 0 0 0 0 0 0 0 0 0 0 0 0 0 0 0 0 0 0 0 0 0 0 0 0 0 0 0 0 0 0 0 0 0 0 0

GEFSNGP_con_probscp_120.txt.gz
Probability
0 0 0 1 1 1 1 0 0 0 0 0 0 1 1 1 1 0 0 0 0 0 0 1 2 4 6 6 4 2 1 0 0 0 0 0 0 0 0 0 0 0 0 0
0 0 1 2 2 2 2 1 1 0 0 0 1 2 3 3 3 2 1 1 0 0 0 0 2 4 7 8 6 4 3 2 1 0 0 0 0 0 0 0 0 0 0 0
0 0 2 3 3 3 3 4 4 3 1 1 2 3 4 5 5 4 3 2 1 0 0 0 1 3 7 8 6 5 5 5 3 2 1 0 1 1 1 1 0 0 0 0
0 0 2 2 2 2 3 5 6 5 4 3 3 3 4 6 7 7 5 4 3 1 0 0 0 1 4 5 5 6 6 6 6 5 3 2 2 2 2 1 0 0 0 0
0 0 1 2 1 1 3 4 4 4 5 4 3 2 3 5 7 8 7 5 3 1 0 0 0 0 1 2 3 5 6 6 6 6 5 3 3 3 2 1 0 0 0 0
0 0 1 1 0 1 2 2 2 3 4 4 2 0 1 3 5 6 5 3 2 1 0 0 0 0 0 0 1 3 5 5 6 5 4 3 2 2 1 0 0 0 0 0
0 0 0 0 0 0 0 1 2 3 5 4 1 0 0 1 2 2 1 1 0 1 2 1 1 0 0 0 0 1 2 3 3 3 1 1 1 1 0 0 0 0 0 0
0 0 0 0 0 0 0 0 1 3 4 3 1 0 1 1 0 0 0 0 1 2 3 3 2 1 0 0 0 0 0 1 1 1 0 0 0 0 0 0 0 0 0 0
0 0 0 0 0 0 0 0 1 3 3 1 0 0 0 0 0 0 0 0 1 2 3 3 3 2 1 1 0 0 0 0 0 0 0 0 0 0 0 0 0 0 0 0
0 0 0 0 0 0 0 0 1 2 2 1 0 0 0 0 0 0 0 0 1 2 3 3 3 3 3 2 1 0 0 0 0 0 0 1 0 0 0 0 0 0 0 0
0 0 0 0 0 0 0 1 2 2 1 0 0 0 0 0 0 0 0 0 1 3 3 3 3 3 3 2 1 0 0 0 0 0 0 0 0 0 0 0 0 0 0 0
0 0 0 0 0 0 0 1 2 1 0 0 0 0 0 0 0 0 0 1 2 3 3 3 2 2 1 1 0 0 0 0 0 0 0 0 0 0 0 0 0 0 0 0
0 0 0 0 0 0 0 1 1 0 0 0 0 0 0 0 0 0 0 1 2 2 2 1 1 1 0 0 0 0 0 0 0 0 0 0 0 0 0 0 0 0 0 0
0 0 0 0 0 0 0 0 0 0 0 0 0 0 0 0 0 0 0 1 1 1 1 0 0 0 0 0 0 0 0 0 0 0 0 0 0 0 0 0 0 0 0 0
0 0 0 0 0 0 0 0 0 0 0 0 0 0 0 0 0 0 0 0 0 0 0 0 0 0 0 0 0 0 0 0 0 0 0 0 0 0 0 0 0 0 0 0
0 0 0 0 0 0 0 0 0 0 0 0 0 0 0 0 0 0 0 0 0 0 0 0 0 0 0 0 0 0 0 0 0 0 0 0 0 0 0 0 0 0 0 0
0 0 0 0 0 0 0 0 0 0 0 0 0 0 0 0 0 0 0 0 0 0 0 0 0 0 0 0 0 0 0 0 0 0 0 0 0 0 0 0 0 0 0 0
0 0 0 0 0 0 0 0 0 0 0 0 0 0 0 0 0 0 0 0 0 0 0 0 0 0 0 0 0 0 0 0 0 0 0 0 0 0 0 0 0 0 0 0
0 0 0 0 0 0 0 0 0 0 0 0 0 0 0 0 0 0 0 0 0 0 0 0 0 0 0 0 0 0 0 0 0 0 0 0 0 0 0 0 0 0 0 0
0 0 0 0 0 0 0 0 0 0 0 0 0 0 0 0 0 0 0 0 0 0 0 0 0 0 0 0 0 0 0 0 0 0 0 0 0 0 0 0 0 0 0 0
0 0 0 0 0 0 0 0 0 0 0 0 0 0 0 0 0 0 0 0 0 0 0 0 0 0 0 0 0 0 0 0 0 0 0 0 0 0 0 0 0 0 0 0
0 0 0 0 0 0 0 0 0 0 0 0 0 0 0 0 0 0 0 0 0 0 0 0 0 0 0 0 0 0 0 0 0 0 0 0 0 0 0 0 0 0 0 0
0 0 0 0 0 0 0 0 0 0 0 0 0 0 0 0 0 0 0 0 0 0 0 0 0 0 0 0 0 0 0 0 0 0 0 0 0 0 0 0 0 0 0 0
0 0 0 0 0 0 0 0 0 0 0 0 0 0 0 0 0 0 0 0 0 0 0 0 0 0 0 0 0 0 0 0 0 0 0 0 0 0 0 0 0 0 0 0
0 0 0 0 0 0 0 0 0 0 0 0 0 0 0 0 0 0 0 0 0 0 0 0 0 0 0 0 0 0 0 0 0 0 0 0 0 0 0 0 0 0 0 0
0 0 0 0 0 0 0 0 0 0 0 0 0 0 0 0 0 0 0 0 0 0 0 0 0 0 0 0 0 0 0 0 0 0 0 0 0 0 0 0 0 0 0 0
0 0 0 0 0 0 0 0 0 0 0 0 0 0 0 0 0 0 0 0 0 0 0 0 0 0 0 0 0 0 0 0 0 0 0 0 0 0 0 0 0 0 0 0

GEFSNGP_con_probscp_126.txt.gz
Probability
0 0 0 0 0 0 0 0 0 0 1 1 1 2 4 4 4 3 4 5 4 3 3 4 4 3 1 2 3 5 6 7 6 6 8 8 7 6 6 6 9 12 12 9
0 0 0 0 0 0 0 0 0 1 2 2 3 5 7 7 7 6 5 4 5 5 6 7 7 5 3 2 3 5 7 7 6 7 9 10 9 7 6 7 10 13 13 10
0 0 0 0 0 0 0 1 2 3 5 7 8 11 13 13 11 9 7 6 8 10 11 10 10 9 6 5 5 6 8 8 7 8 10 11 10 8 8 9 11 13 13 11
0 0 0 1 1 0 1 3 6 8 10 12 15 15 16 15 14 12 11 11 14 16 15 12 12 13 12 10 9 8 8 8 8 10 12 13 12 11 10 11 12 11 11 10
0 0 0 1 1 1 2 4 7 9 12 14 15 15 16 16 18 18 18 19 21 21 19 16 15 16 16 15 14 11 8 7 9 12 15 16 16 15 13 13 11 9 7 7
0 0 0 1 1 2 2 4 7 8 10 12 14 16 17 18 21 24 24 23 23 21 19 19 20 18 17 16 15 12 8 8 9 13 16 18 18 17 15 13 11 8 5 4
0 0 1 2 1 3 5 8 10 9 10 14 18 20 20 19 20 22 23 22 20 18 17 19 20 19 16 14 12 9 7 8 9 10 13 15 16 17 15 13 10 7 4 2
0 1 2 4 6 9 13 15 15 13 13 17 21 21 19 18 17 17 18 19 18 18 17 17 18 18 16 15 13 10 7 6 6 7 9 11 12 14 13 10 7 4 2 1
2 2 3 7 12 15 17 18 17 15 13 14 16 16 16 15 14 13 14 15 15 16 15 15 15 15 16 17 15 13 10 7 6 7 8 9 10 10 9 7 3 1 1 0
4 3 4 7 10 12 14 15 13 11 9 8 10 12 12 11 9 9 9 10 11 11 11 11 12 12 14 16 16 13 11 8 8 9 9 9 8 6 5 3 1 0 0 0
4 4 4 5 5 7 9 10 8 7 6 6 8 10 9 7 6 6 6 6 7 8 8 8 8 9 11 13 12 11 9 7 7 7 6 5 3 2 1 1 0 0 0 0
3 2 3 3 2 3 5 7 6 5 6 7 8 8 7 6 4 3 2 2 3 5 6 5 5 6 8 9 8 6 5 3 3 2 2 1 0 0 0 0 0 0 0 0
1 1 2 2 2 2 4 6 6 5 6 7 7 7 6 5 4 2 0 0 1 2 4 4 3 5 6 5 4 2 1 0 0 0 0 0 0 0 0 0 0 0 0 0
0 0 1 2 3 3 4 6 7 7 6 6 6 5 4 4 3 1 0 0 0 1 2 2 2 3 3 3 2 1 0 0 0 0 0 0 0 0 0 0 0 0 0 0
0 0 1 2 2 3 4 5 7 7 7 6 5 4 2 1 1 0 0 0 0 0 1 1 1 1 1 1 1 0 0 0 0 0 0 0 0 0 0 0 0 0 0 0
0 0 0 0 1 2 2 3 5 6 6 5 3 1 1 0 0 0 0 0 0 0 0 0 0 0 0 0 0 0 0 0 0 0 0 0 0 0 0 0 0 0 0 0
0 0 0 0 0 1 1 1 3 4 5 3 2 0 0 0 1 0 0 0 0 0 0 0 0 0 0 0 0 0 0 0 0 0 0 0 0 0 0 0 0 0 0 0
0 0 0 0 0 0 0 0 1 3 4 3 2 1 0 0 0 0 0 0 0 0 0 0 0 0 0 0 0 0 0 0 0 0 0 0 0 0 0 0 0 0 0 0
0 0 0 0 0 0 0 0 1 4 4 3 2 1 0 0 0 0 0 0 0 0 0 0 0 0 0 0 0 0 0 0 0 0 0 0 0 0 0 0 0 0 0 0
0 0 0 0 0 0 0 0 1 3 3 2 2 2 1 0 0 0 0 0 0 0 0 0 0 0 0 0 0 0 0 0 0 0 0 0 0 0 0 0 0 0 0 0
0 0 0 0 0 0 0 0 2 2 2 1 1 1 1 0 0 0 0 0 0 0 0 0 0 0 0 0 0 0 0 0 0 0 0 0 0 0 0 0 0 0 0 0
0 0 0 0 0 0 0 1 2 3 2 1 0 0 0 0 0 0 0 0 0 0 0 0 0 0 0 0 0 0 0 0 0 0 0 0 0 0 0 0 0 0 0 0
0 0 0 0 1 1 1 1 2 3 3 1 0 0 0 0 0 0 0 0 0 0 0 0 0 0 0 0 0 0 0 0 0 0 0 0 0 0 0 0 0 0 0 0
0 0 0 0 1 1 1 1 2 2 2 1 0 0 0 0 0 0 0 0 0 0 0 0 0 0 0 0 0 0 0 0 0 0 0 0 0 0 0 0 0 0 0 0
0 0 0 0 1 1 1 1 1 1 1 1 0 0 0 0 0 0 0 0 0 0 0 0 0 0 0 0 0 0 0 0 0 0 0 0 0 0 0 0 0 0 0 0
0 0 0 0 0 0 0 0 0 0 0 0 0 0 0 0 0 0 0 0 0 0 0 0 0 0 0 0 0 0 0 0 0 0 0 0 0 0 0 0 0 0 0 0
0 0 0 0 0 0 0 0 0 0 0 0 0 0 0 0 0 0 0 0 0 0 0 0 0 0 0 0 0 0 0 0 0 0 0 0 0 0 0 0 0 0 0 0

GEFSNGP_con_probscp_132.txt.gz
Probability
0 0 0 0 0 0 0 0 1 5 10 15 21 26 29 30 30 30 29 30 32 32 32 29 25 19 12 10 10 13 16 16 16 16 16 17 18 17 16 15 15 16 17 19
0 0 0 0 0 0 0 0 2 7 13 19 25 29 32 34 33 31 30 31 31 33 32 29 25 21 16 13 15 17 17 16 16 16 16 16 17 17 16 15 15 15 15 16
0 0 0 0 1 1 1 2 5 12 18 24 29 35 38 40 39 36 34 34 33 32 31 28 25 24 22 19 20 22 20 17 16 16 15 15 16 16 16 15 14 14 13 14
0 0 0 1 2 2 3 5 11 18 23 27 34 42 47 47 46 43 41 41 38 32 30 30 28 28 26 23 23 23 21 19 17 16 15 14 16 16 15 14 13 12 11 10
0 0 1 2 4 4 4 9 17 24 28 32 38 46 52 54 52 49 48 48 43 37 35 36 35 32 29 26 24 21 19 18 17 15 16 17 18 18 17 15 13 11 8 7
0 0 1 4 5 5 7 13 22 29 33 36 39 45 53 56 53 51 51 50 45 41 42 42 40 37 32 28 25 21 19 19 17 17 20 21 20 20 18 16 13 10 8 7
1 2 3 6 7 12 21 28 32 35 39 42 44 48 52 53 50 48 47 45 42 41 42 42 40 36 31 27 24 22 21 20 19 19 20 21 19 17 16 14 11 9 9 8
6 10 15 17 19 26 37 43 42 42 44 46 48 48 48 47 44 41 39 38 38 40 40 39 37 33 27 25 23 22 21 21 20 18 15 14 15 14 13 11 8 8 8 8
19 24 32 33 33 35 39 41 41 41 42 42 42 42 41 40 36 32 32 33 36 36 35 34 33 30 26 24 24 22 21 21 19 15 11 11 12 12 11 10 8 7 7 6
32 35 38 38 36 34 32 31 32 31 32 33 34 34 33 31 29 28 28 30 31 30 28 27 28 26 24 23 22 19 17 17 14 10 9 10 10 9 9 8 7 7 6 4
33 34 35 33 31 29 27 26 26 24 24 26 28 28 27 25 25 25 25 24 25 25 23 23 23 21 19 19 16 13 12 11 8 6 6 6 5 3 3 4 4 5 4 2
27 29 30 27 23 20 19 19 20 21 21 22 22 21 21 21 21 20 18 18 21 22 20 20 19 17 15 14 12 10 8 7 5 3 3 3 1 0 0 1 1 1 1 1
19 22 23 20 14 10 10 12 14 17 19 17 16 15 15 16 16 15 14 14 16 16 16 16 14 12 12 11 10 8 7 5 4 3 3 2 1 0 0 0 0 0 0 0
12 13 15 14 9 7 7 8 8 11 13 13 12 11 11 12 12 12 12 12 10 10 10 10 8 8 8 8 7 6 5 4 3 2 2 1 0 0 0 0 0 0 0 0
7 8 8 8 7 6 6 5 5 7 10 11 10 9 9 9 9 9 9 8 6 5 5 5 4 4 4 4 3 3 4 3 1 1 1 0 0 0 0 0 0 0 0 0
4 4 4 4 4 4 4 3 4 5 7 9 8 7 7 6 5 6 5 4 3 1 1 2 1 1 1 1 1 1 1 1 0 0 0 0 0 0 0 0 0 0 0 0
2 2 3 3 3 3 3 3 3 4 6 6 6 5 4 4 3 4 3 2 1 0 0 0 0 0 0 0 0 0 0 0 0 0 0 0 0 0 0 0 0 0 0 0
2 3 3 3 3 3 2 2 3 5 6 6 6 5 4 3 3 3 3 1 0 0 0 0 0 0 0 0 0 0 0 0 0 0 0 0 0 0 0 0 0 0 0 0
2 2 2 3 3 3 2 1 2 4 6 6 6 5 4 3 2 3 3 1 0 0 0 0 0 0 0 0 0 0 0 0 0 0 0 0 0 0 0 0 0 0 0 0
1 1 1 1 1 1 1 0 1 3 4 4 3 4 3 2 2 2 2 1 0 0 0 0 0 0 0 0 0 0 0 0 0 0 0 0 0 0 0 0 0 0 0 0
0 0 0 0 0 0 0 0 1 2 2 2 2 3 3 2 2 2 1 0 0 0 0 0 0 0 0 0 0 0 0 0 0 0 0 0 0 0 0 0 0 0 0 0
0 0 1 2 1 1 1 1 2 2 3 3 3 4 3 2 1 1 0 0 0 0 0 0 0 0 0 0 0 0 0 0 0 0 0 0 0 0 0 0 0 0 0 0
1 1 2 2 2 2 2 1 1 1 3 4 4 4 3 2 1 0 0 0 0 0 0 0 0 0 0 0 0 0 0 0 0 0 0 0 0 0 0 0 0 0 0 0
2 2 2 2 2 3 2 1 0 1 2 4 4 3 3 1 0 0 0 0 0 0 0 0 0 0 0 0 0 0 0 0 0 0 0 0 0 0 0 0 0 0 0 0
1 1 1 0 1 2 1 0 0 1 2 3 3 3 2 1 0 0 0 0 0 0 0 0 0 0 0 0 0 0 0 0 0 0 0 0 0 0 0 0 0 0 0 0
0 0 0 0 0 1 1 0 0 1 2 3 3 2 1 0 0 0 0 0 0 0 0 0 0 0 0 0 0 0 0 0 0 0 0 0 0 0 0 0 0 0 0 0
0 0 0 0 0 0 0 0 0 1 3 3 2 1 0 0 0 0 0 0 0 0 0 0 0 0 0 0 0 0 0 0 0 0 0 0 0 0 0 0 0 0 0 0

GEFSNGP_con_probscp_138.txt.gz
Probability
0 0 0 0 0 0 0 0 1 3 6 9 17 28 37 43 41 34 29 23 16 9 5 4 3 2 4 6 5 4 4 5 6 7 5 4 3 2 1 2 4 5 4 4
0 0 0 0 1 1 0 0 2 7 11 15 23 32 40 43 40 33 27 22 16 9 5 3 2 3 5 7 6 5 5 6 7 7 6 5 4 3 3 3 4 5 6 6
0 0 0 0 1 2 1 2 5 11 19 26 32 35 38 38 35 29 23 19 13 7 4 2 2 3 5 6 5 4 5 6 5 6 6 6 6 5 4 4 5 5 6 6
0 0 0 1 2 3 4 6 9 17 27 36 38 37 33 31 28 24 19 15 11 5 2 2 2 3 4 4 3 2 2 3 3 3 4 5 6 5 5 5 4 3 3 3
0 0 0 1 2 3 8 13 16 23 33 40 42 41 34 28 26 23 19 15 9 4 2 2 2 3 3 3 3 1 0 1 1 1 2 4 4 3 3 3 2 1 1 1
0 0 0 2 3 5 10 16 20 26 33 38 41 41 36 30 27 24 21 15 8 4 3 2 2 3 3 3 3 2 1 0 0 0 1 1 1 1 1 1 1 0 0 0
0 0 0 2 5 6 8 14 21 26 29 33 37 36 33 30 27 24 19 13 7 6 5 3 2 3 3 3 4 3 2 0 0 0 0 0 0 0 0 0 0 0 0 0
0 0 0 2 5 8 11 18 25 28 30 33 36 34 29 25 23 19 16 11 8 8 7 4 3 3 2 3 3 4 3 1 0 0 0 0 0 0 0 0 0 0 1 1
3 4 6 8 11 15 20 25 29 32 34 35 34 30 24 19 16 15 13 11 11 9 7 4 4 4 2 2 3 3 3 2 0 0 0 0 0 0 0 0 0 0 2 3
8 10 14 18 19 20 23 25 27 31 34 33 27 22 18 14 13 12 12 11 11 9 7 4 3 3 2 2 3 3 1 1 0 0 0 0 0 0 0 0 0 0 1 3
8 10 15 19 19 20 20 22 25 28 29 26 20 17 14 13 12 12 11 10 8 7 6 4 3 2 2 3 3 2 1 0 0 0 0 0 0 0 0 0 0 0 0 1
4 5 9 12 15 16 17 19 22 23 21 17 15 13 11 10 9 8 8 7 5 5 5 5 4 3 2 3 3 1 0 0 0 0 0 0 0 0 0 0 0 0 0 0
2 2 5 10 13 15 16 17 18 17 14 11 9 8 7 5 4 4 4 3 3 3 4 4 4 2 2 2 2 1 0 0 0 0 0 0 0 0 0 0 0 0 0 0
2 3 5 9 11 13 13 13 13 12 10 7 5 4 3 1 1 2 2 1 1 1 2 2 2 1 0 1 1 0 0 0 0 0 0 0 0 0 0 0 0 0 0 0
3 3 5 7 8 9 9 8 7 7 6 3 1 1 1 0 0 1 1 0 0 0 1 1 0 0 0 0 0 0 0 0 0 0 0 0 0 0 0 0 0 0 0 0
3 3 4 5 6 6 5 4 3 3 2 1 0 0 0 0 0 0 0 0 0 0 0 0 0 0 0 0 0 0 0 0 0 0 0 0 0 0 0 0 0 0 0 0
1 2 3 3 4 4 2 1 1 1 1 0 0 0 0 0 0 0 0 0 0 0 0 0 0 0 0 0 0 0 0 0 0 0 0 0 0 0 0 0 0 0 0 0
0 1 1 1 1 1 0 0 0 0 0 0 0 0 0 0 0 0 0 0 0 0 0 0 0 0 0 0 0 0 0 0 0 0 0 0 0 0 0 0 0 0 0 0
0 0 0 0 0 0 0 0 0 0 0 0 0 0 0 0 0 0 0 0 0 0 0 0 0 0 0 0 0 0 0 0 0 0 0 0 0 0 0 0 0 0 0 0
0 0 0 0 0 0 0 0 0 1 1 0 0 0 0 0 0 0 0 0 0 0 0 0 0 0 0 0 0 0 0 0 0 0 0 0 0 0 0 0 0 0 0 0
0 0 0 0 0 0 0 0 1 2 2 1 0 0 0 0 0 0 0 0 0 0 0 0 0 0 0 0 0 0 0 0 0 0 0 0 0 0 0 0 0 0 0 0
0 1 1 0 0 0 0 0 1 2 2 1 0 0 0 0 0 0 0 0 0 0 0 0 0 0 0 0 0 0 0 0 0 0 0 0 0 0 0 0 0 0 0 0
1 2 1 0 0 0 0 0 1 1 1 0 0 0 0 0 0 0 0 0 0 0 0 0 0 0 0 0 0 0 0 0 0 0 0 0 0 0 0 0 0 0 0 0
1 1 1 0 0 0 0 0 0 0 0 0 0 0 0 0 0 0 0 0 0 0 0 0 0 0 0 0 0 0 0 0 0 0 0 0 0 0 0 0 0 0 0 0
0 0 0 0 0 0 0 0 0 0 0 0 0 0 0 0 0 0 0 0 0 0 0 0 0 0 0 0 0 0 0 0 0 0 0 0 0 0 0 0 0 0 0 0
0 0 0 0 0 0 0 0 0 0 0 0 0 0 0 0 0 0 0 0 0 0 0 0 0 0 0 0 0 0 0 0 0 0 0 0 0 0 0 0 0 0 0 0
0 0 0 0 0 0 0 0 0 0 0 0 0 0 0 0 0 0 0 0 0 0 0 0 0 0 0 0 0 0 0 0 0 0 0 0 0 0 0 0 0 0 0 0

GEFSNGP_con_probscp_144.txt.gz
Probability
0 0 0 0 0 0 0 0 0 0 0 0 2 6 9 15 22 27 24 19 14 10 6 4 2 1 0 0 0 0 0 0 0 0 0 0 0 0 0 0 1 2 4 4
0 0 0 0 0 0 0 0 0 0 0 1 5 8 10 14 22 27 24 17 11 8 5 3 2 1 0 0 0 0 0 0 0 0 0 0 0 0 0 1 3 4 4 4
0 0 0 0 0 0 0 0 0 0 1 3 8 11 11 14 21 26 22 14 8 5 4 2 1 0 0 0 0 0 0 0 0 0 0 0 0 0 0 1 4 5 4 4
0 0 0 0 0 0 0 0 0 0 2 6 11 13 12 13 18 21 17 11 5 3 2 1 0 0 0 0 0 0 0 0 0 0 0 0 0 0 0 1 2 3 3 2
0 0 0 1 0 0 0 0 0 2 5 10 14 14 12 11 13 15 12 8 5 3 2 1 0 0 0 0 0 0 0 0 0 0 0 0 0 0 0 0 1 1 1 1
0 0 0 0 0 0 0 0 1 4 8 13 16 14 11 9 10 10 8 6 4 2 1 0 0 0 0 0 0 0 0 0 0 0 0 0 0 0 0 0 0 0 0 0
0 0 0 0 0 0 0 0 2 5 9 13 14 11 10 10 10 10 8 6 3 1 0 0 0 0 0 0 0 0 0 0 0 0 0 0 0 0 0 0 0 0 0 0
0 0 0 0 0 0 0 0 2 5 9 11 10 9 10 12 11 10 10 8 5 2 0 0 0 0 0 0 0 0 0 0 0 0 0 0 0 0 0 0 0 0 0 0
0 0 0 0 0 1 1 0 2 4 7 11 12 12 13 12 11 11 10 9 7 5 2 0 0 0 0 0 0 0 0 0 0 0 0 0 0 0 0 0 0 0 0 0
1 0 0 0 1 2 4 5 6 8 11 15 19 17 14 11 10 10 9 7 7 6 3 1 0 0 0 0 0 0 0 0 0 0 0 0 0 0 0 0 0 0 0 0
1 0 0 0 1 4 8 12 14 15 16 18 20 18 13 10 8 7 6 5 4 3 2 1 0 0 0 0 0 0 0 0 0 0 0 0 0 0 0 0 0 0 0 0
1 0 0 1 2 6 11 17 19 17 15 15 15 13 10 7 5 4 3 3 2 1 0 0 0 0 0 0 0 0 0 0 0 0 0 0 0 0 0 0 0 0 0 0
0 0 0 2 5 8 12 15 15 14 13 12 11 8 5 3 3 1 1 1 1 0 0 0 0 0 0 0 0 0 0 0 0 0 0 0 0 0 0 0 0 0 0 0
0 0 0 2 5 8 10 11 11 11 11 11 9 5 2 1 1 0 0 0 0 0 0 0 0 0 0 0 0 0 0 0 0 0 0 0 0 0 0 0 0 0 0 0
0 0 1 3 5 6 8 9 9 9 9 8 5 2 0 0 0 0 0 0 0 0 0 0 0 0 0 0 0 0 0 0 0 0 0 0 0 0 0 0 0 0 0 0
0 1 3 5 5 5 5 6 6 5 4 3 1 0 0 0 0 0 0 0 0 0 0 0 0 0 0 0 0 0 0 0 0 0 0 0 0 0 0 0 0 0 0 0
0 1 3 5 4 2 2 3 3 2 1 0 0 0 0 0 0 0 0 0 0 0 0 0 0 0 0 0 0 0 0 0 0 0 0 0 0 0 0 0 0 0 0 0
0 1 2 3 3 1 0 1 1 0 0 0 0 0 0 0 0 0 0 0 0 0 0 0 0 0 0 0 0 0 0 0 0 0 0 0 0 0 0 0 0 0 0 0
0 0 1 1 1 1 0 0 0 0 0 0 0 0 0 0 0 0 0 0 0 0 0 0 0 0 0 0 0 0 0 0 0 0 0 0 0 0 0 0 0 0 0 0
0 0 0 0 0 0 0 0 0 0 0 0 0 0 0 0 0 0 0 0 0 0 0 0 0 0 0 0 0 0 0 0 0 0 0 0 0 0 0 0 0 0 0 0
0 0 0 0 0 0 0 0 0 0 0 0 0 0 0 0 0 0 0 0 0 0 0 0 0 0 0 0 0 0 0 0 0 0 0 0 0 0 0 0 0 0 0 0
0 0 0 0 0 0 0 0 0 0 0 0 0 0 0 0 0 0 0 0 0 0 0 0 0 0 0 0 0 0 0 0 0 0 0 0 0 0 0 0 0 0 0 0
0 0 0 0 0 0 0 0 0 0 0 0 0 0 0 0 0 0 0 0 0 0 0 0 0 0 0 0 0 0 0 0 0 0 0 0 0 0 0 0 0 0 0 0
0 0 0 0 0 0 0 0 0 0 0 0 0 0 0 0 0 0 0 0 0 0 0 0 0 0 0 0 0 0 0 0 0 0 0 0 0 0 0 0 0 0 0 0
0 0 0 0 0 0 0 0 0 0 0 0 0 0 0 0 0 0 0 0 0 0 0 0 0 0 0 0 0 0 0 0 0 0 0 0 0 0 0 0 0 0 0 0
0 0 0 0 0 0 0 0 0 0 0 0 0 0 0 0 0 0 0 0 0 0 0 0 0 0 0 0 0 0 0 0 0 0 0 0 0 0 0 0 0 0 0 0
0 0 0 0 0 0 0 0 0 0 0 0 0 0 0 0 0 0 0 0 0 0 0 0 0 0 0 0 0 0 0 0 0 0 0 0 0 0 0 0 0 0 0 0

GEFSNGP_con_probscp_150.txt.gz
Probability
0 0 0 0 0 0 0 0 0 0 0 0 1 5 13 19 26 35 37 35 32 29 26 25 22 19 16 11 7 6 5 4 2 1 1 2 4 5 3 2 3 6 7 7
0 0 0 0 0 0 0 0 0 0 0 0 2 8 15 21 27 35 38 36 33 30 27 25 22 20 17 12 9 8 7 4 3 1 1 2 3 4 4 4 4 6 7 8
0 0 0 0 0 0 0 0 0 0 0 1 5 11 17 22 27 32 36 38 35 31 30 28 23 20 16 12 10 10 8 5 3 2 1 2 2 3 5 6 6 6 6 6
0 0 0 0 0 0 0 0 1 1 2 5 7 11 16 21 27 30 35 41 39 35 34 31 24 18 14 11 9 8 6 4 3 2 1 1 1 2 4 5 6 5 4 4
0 0 0 0 0 0 0 1 3 5 8 10 10 10 15 24 32 36 40 44 44 39 35 30 23 16 12 9 7 5 4 3 3 2 1 0 1 2 3 4 4 3 3 3
0 0 0 1 1 0 0 3 10 15 18 17 15 14 21 32 41 47 50 50 47 40 32 26 22 17 12 10 7 4 2 3 3 3 2 1 1 2 2 3 3 2 2 2
0 0 1 2 4 6 8 14 22 28 27 25 24 26 33 41 49 56 58 55 49 39 30 25 23 20 17 13 8 4 3 3 4 4 3 3 3 3 2 3 3 2 2 2
1 2 4 7 11 17 24 30 35 36 34 31 32 35 40 45 49 54 56 53 47 40 33 27 24 23 20 14 9 5 3 4 5 5 4 4 4 5 5 4 4 3 3 2
6 6 8 12 17 24 33 38 40 39 35 32 32 34 38 41 43 44 45 45 43 39 34 29 25 22 18 12 7 5 4 4 6 6 6 5 6 6 6 5 4 3 3 2
12 11 12 15 19 24 31 35 36 34 32 30 30 31 33 35 36 36 36 37 38 36 33 27 22 18 13 8 7 6 4 4 6 7 7 7 7 7 6 5 4 2 2 2
18 18 19 19 20 22 26 28 28 29 29 29 30 31 31 31 33 32 33 33 31 31 27 20 15 13 9 7 7 7 6 5 5 5 6 6 6 5 5 4 2 1 1 2
19 20 22 21 20 22 23 23 25 27 29 29 30 31 31 31 31 31 31 29 25 22 19 14 10 7 6 5 6 8 8 6 4 4 4 4 4 4 3 2 1 0 1 1
14 15 16 15 17 20 21 21 23 25 28 29 28 28 30 31 30 28 26 23 19 15 13 11 7 4 2 2 4 6 6 5 4 3 3 3 3 3 2 0 0 0 0 0
8 9 10 11 13 16 16 16 17 20 24 26 25 24 25 26 25 22 19 17 14 11 9 7 5 2 0 0 1 2 2 2 2 3 3 3 3 3 1 0 0 0 0 0
4 6 8 9 11 12 12 12 12 15 18 20 18 16 16 17 17 15 14 13 10 8 6 6 4 1 0 0 0 0 0 0 1 2 2 2 2 2 1 0 0 0 0 0
2 5 7 8 10 11 9 8 8 9 11 13 12 11 10 11 12 10 10 9 8 6 5 5 3 1 0 0 0 0 0 0 0 1 1 1 1 1 0 0 0 0 0 0
2 4 6 8 9 9 7 6 6 7 8 8 8 9 9 9 9 8 6 6 5 4 3 3 1 0 0 0 0 0 0 0 0 0 0 0 0 0 0 0 0 0 0 0
1 3 4 5 6 6 6 6 7 8 7 6 6 7 8 8 7 5 4 4 3 1 1 1 0 0 0 0 0 0 0 0 0 0 0 0 0 0 0 0 0 0 0 0
1 1 2 2 2 4 6 8 8 8 6 5 4 5 6 5 4 3 2 2 1 0 0 0 0 0 0 0 0 0 0 0 0 0 0 0 0 0 0 0 0 0 0 0
1 1 1 0 0 3 7 8 8 6 4 2 3 3 4 3 1 1 0 0 0 0 0 0 0 0 0 0 0 0 0 0 0 0 0 0 0 0 0 0 0 0 0 0
1 1 0 0 0 2 5 7 6 5 3 2 2 2 2 1 0 0 0 0 0 0 0 0 0 0 0 0 0 0 0 0 0 0 0 0 0 0 0 0 0 0 0 0
1 0 0 0 0 0 1 2 3 5 5 3 1 1 1 0 0 0 0 0 0 0 0 0 0 0 0 0 0 0 0 0 0 0 0 0 0 0 0 0 0 0 0 0
0 0 1 0 0 0 0 0 2 4 5 4 3 1 0 0 0 0 0 0 0 0 0 0 0 0 0 0 0 0 0 0 0 0 0 0 0 0 0 0 0 0 0 0
0 0 0 0 1 1 1 1 2 3 4 5 5 3 1 1 1 0 0 0 0 0 0 0 0 0 0 0 0 0 0 0 0 0 0 0 0 0 0 0 0 0 0 0
0 0 0 0 1 2 2 2 2 3 4 5 5 4 3 2 2 1 0 0 0 0 0 0 0 0 0 0 0 0 0 0 0 0 0 0 0 0 0 0 0 0 0 0
0 0 0 0 1 1 2 3 3 3 3 4 4 4 3 3 2 1 0 0 0 0 0 0 0 0 0 0 0 0 0 0 0 0 0 0 0 0 0 0 0 0 0 0
0 0 0 0 0 0 1 3 3 3 3 3 3 3 3 3 2 1 0 0 0 0 0 0 0 0 0 0 0 0 0 0 0 0 0 0 0 0 0 0 0 0 0 0

GEFSNGP_con_probscp_156.txt.gz
Probability
0 0 0 0 0 0 0 0 0 1 3 5 9 15 22 29 38 49 56 59 65 69 69 67 64 56 46 40 35 29 25 22 19 17 17 17 18 18 19 20 20 18 15 12
0 0 0 0 0 0 0 0 0 1 4 9 13 17 22 31 40 49 55 59 63 67 67 66 62 53 44 38 32 26 24 22 19 18 17 16 16 17 17 16 17 16 13 11
0 0 0 0 0 0 0 1 1 4 8 13 18 21 24 32 43 51 56 59 63 65 65 63 58 51 42 34 28 25 23 21 19 18 17 15 14 15 14 12 13 13 11 10
0 0 0 0 1 1 3 7 10 12 14 16 19 22 26 34 45 53 59 64 66 67 65 62 57 49 39 30 26 24 21 18 17 17 17 15 14 13 12 10 10 10 9 9
0 0 1 3 5 5 8 16 22 22 22 21 19 22 30 39 47 56 63 68 70 69 67 64 60 52 39 29 24 21 17 16 16 17 17 15 14 12 11 10 9 8 7 7
0 0 3 7 9 9 14 24 31 33 33 33 32 32 39 47 51 57 66 70 71 70 68 65 63 56 43 31 24 19 16 16 17 17 16 14 11 11 10 10 8 7 6 6
0 1 5 10 14 17 25 36 41 43 45 48 50 51 52 55 57 61 68 72 72 71 68 66 63 56 45 36 28 21 18 18 17 15 13 10 9 10 10 9 8 8 8 8
6 9 16 23 25 31 43 51 51 50 51 56 59 61 61 61 61 64 70 73 73 71 69 67 62 54 46 39 31 23 19 19 17 15 11 8 8 9 9 9 8 8 8 8
19 22 30 34 34 39 47 52 55 52 50 52 56 59 62 63 64 66 70 72 71 69 66 62 56 49 43 38 32 26 23 22 20 16 12 11 10 8 8 8 7 7 6 6
28 30 33 33 32 34 39 44 49 49 46 45 49 54 59 62 64 66 67 67 64 61 58 55 50 45 40 36 31 27 25 25 22 15 12 13 12 9 8 8 8 6 5 3
32 31 30 30 28 29 33 37 40 42 41 41 44 46 51 55 58 60 60 58 54 51 49 49 46 41 36 32 28 25 24 23 18 12 10 11 11 9 7 6 6 6 4 3
33 32 30 28 26 26 29 34 36 37 38 39 39 39 40 43 46 47 49 48 44 42 41 41 37 33 30 27 24 22 21 18 13 10 10 9 8 6 4 3 2 2 2 1
27 26 25 25 23 23 25 29 30 30 30 30 30 30 29 31 34 37 39 37 35 34 34 31 27 24 23 22 21 22 19 14 10 9 8 8 6 4 3 2 1 1 0 0
16 17 18 21 22 21 21 22 22 21 21 20 20 22 24 25 27 29 30 29 28 28 27 25 22 20 20 20 19 19 14 8 5 5 4 4 4 3 3 3 2 1 0 0
8 11 15 18 20 19 17 17 17 16 16 16 17 19 23 24 23 22 22 23 23 23 23 22 20 18 18 17 14 12 8 3 1 2 2 1 1 1 2 2 2 1 0 0
5 8 13 16 18 17 14 13 15 14 13 14 16 20 24 24 21 18 17 18 20 20 20 18 16 14 13 11 8 6 3 1 1 2 1 0 0 0 1 1 1 0 0 0
4 7 10 13 15 14 11 9 10 11 10 12 15 19 23 22 18 16 16 17 19 18 17 14 12 10 8 7 5 4 2 1 1 1 1 0 0 0 0 0 0 0 0 0
4 5 6 8 9 9 7 5 6 8 9 11 13 16 19 18 16 15 15 16 15 14 12 10 8 7 6 5 4 4 3 2 0 0 0 0 0 0 0 0 0 0 0 0
3 3 4 4 4 4 4 4 6 8 9 10 11 13 15 14 13 12 12 11 10 9 8 7 5 5 4 3 3 3 3 1 0 0 0 0 0 0 0 0 0 0 0 0
3 3 3 2 2 1 2 4 6 9 10 9 10 12 12 11 10 9 8 7 6 6 5 4 3 4 3 2 2 2 2 1 0 0 0 0 0 0 0 0 0 0 0 0
2 3 3 2 2 2 3 5 7 9 10 9 9 10 10 9 8 6 4 4 4 5 4 2 2 2 2 1 0 1 1 0 0 0 0 0 0 0 0 0 0 0 0 0
3 3 3 2 3 5 6 6 7 8 8 8 8 8 9 9 7 5 3 3 3 3 2 1 1 1 1 0 0 0 0 0 0 0 0 0 0 0 0 0 0 0 0 0
3 3 3 3 5 7 8 8 8 8 8 8 7 7 8 8 7 6 4 3 2 2 1 1 0 0 0 0 0 0 0 0 0 0 0 0 0 0 0 0 0 0 0 0
2 3 3 4 5 6 7 8 9 8 8 8 6 6 8 9 8 6 5 3 1 0 0 0 0 0 0 0 0 0 0 0 0 0 0 0 0 0 0 0 0 0 0 0
1 1 2 3 4 5 6 7 7 7 7 6 5 4 5 7 7 5 5 3 1 0 0 0 0 0 0 0 0 0 0 0 0 0 0 0 0 0 0 0 0 0 0 0
0 0 1 2 4 5 6 6 6 6 5 4 3 3 4 4 4 4 3 2 1 0 0 0 0 0 0 0 0 0 0 0 0 1 1 0 0 0 0 0 0 0 0 0
0 0 0 1 3 5 6 6 6 5 4 4 3 3 3 3 3 3 3 1 0 0 0 0 0 0 0 0 0 0 0 0 1 2 2 1 0 0 0 0 0 0 0 0

GEFSNGP_con_probscp_162.txt.gz
Probability
0 0 0 0 0 1 0 0 0 1 4 7 13 22 29 34 36 35 36 40 40 36 29 22 21 25 27 23 18 16 15 13 10 7 4 3 2 2 2 1 1 1 0 0
0 0 0 0 0 1 3 4 4 4 6 9 16 24 31 36 40 39 39 43 44 42 36 27 23 24 23 17 12 11 11 10 8 5 4 3 2 1 1 2 1 1 0 0
0 0 0 0 1 4 9 12 12 11 13 16 22 29 36 41 45 45 46 48 49 48 43 33 25 21 16 10 7 6 7 7 6 4 3 3 3 2 2 2 2 1 0 0
0 0 0 0 3 7 15 21 23 23 27 29 32 37 43 46 49 50 50 51 51 50 44 35 26 19 12 9 7 6 5 5 4 3 3 3 4 3 2 1 1 0 0 0
0 0 0 2 7 11 17 27 33 35 38 42 44 46 46 48 52 53 51 50 49 48 44 37 28 21 15 10 8 6 5 4 3 4 5 4 4 3 1 0 0 0 0 0
0 0 2 8 16 19 21 30 38 40 43 48 52 50 46 47 54 56 54 52 49 47 45 40 33 27 20 12 8 6 5 4 4 6 7 5 3 1 0 0 0 0 0 0
0 1 5 15 25 26 25 31 39 41 44 50 54 52 49 50 56 59 59 55 48 44 42 38 34 27 20 14 10 8 7 6 6 7 6 3 1 0 0 0 0 0 0 0
0 2 7 16 24 25 25 32 40 43 44 48 53 54 54 54 54 57 58 52 45 40 37 35 31 25 18 14 12 11 10 8 7 5 2 1 0 0 0 0 0 0 0 0
4 5 8 14 18 20 22 30 37 40 43 47 49 51 54 53 50 49 50 46 41 38 37 34 29 23 17 13 12 12 10 8 5 2 0 0 0 0 0 0 0 0 0 0
11 10 11 15 18 20 24 28 32 35 39 41 42 43 45 46 44 41 40 40 38 37 35 31 25 20 15 12 11 10 9 7 5 2 0 0 0 0 0 0 0 0 0 0
15 14 15 18 19 21 25 28 30 31 31 30 29 30 32 35 35 32 32 33 32 31 28 23 18 15 12 10 9 8 7 6 5 2 1 1 1 0 0 0 0 0 0 0
12 13 15 17 18 19 22 25 26 26 24 20 18 19 21 24 26 25 25 25 25 23 20 16 13 11 10 9 8 6 5 4 3 1 1 1 1 1 1 0 0 0 0 0
7 9 12 15 16 17 17 18 19 20 19 15 13 14 16 18 19 20 19 19 18 16 16 15 14 12 10 8 7 6 5 3 1 1 0 1 1 0 0 0 0 0 0 0
4 6 9 11 14 15 14 13 12 14 14 12 11 11 12 13 14 14 13 13 12 13 14 16 15 13 11 8 8 8 6 4 2 1 0 0 0 0 0 0 0 0 0 0
3 4 5 8 10 11 9 8 7 8 9 8 8 9 9 9 9 8 9 9 10 11 13 15 15 13 11 9 10 9 7 5 3 1 0 0 0 0 0 0 0 0 0 0
1 1 3 4 6 6 5 3 4 4 4 5 6 7 7 6 5 5 7 9 10 11 12 14 14 11 9 10 11 10 7 5 3 1 0 0 0 0 0 0 0 0 0 0
0 1 2 2 3 3 1 1 2 2 2 3 4 5 5 4 4 4 6 8 9 9 10 11 10 8 7 8 9 8 6 4 2 0 0 0 0 0 0 0 0 0 0 0
0 0 1 1 2 1 0 0 1 1 1 2 3 3 4 4 4 4 4 6 8 9 9 8 7 6 5 5 5 5 4 3 2 1 1 1 0 0 0 0 0 0 0 0
0 0 0 0 0 0 0 0 0 0 1 2 2 2 2 3 3 3 3 5 8 8 7 6 6 5 5 4 3 3 3 3 3 3 2 1 0 0 0 0 0 0 0 0
0 0 0 1 1 0 0 0 0 0 1 2 2 1 1 2 2 3 3 4 7 7 6 5 5 5 4 3 3 3 3 3 3 3 2 1 0 0 0 0 0 0 0 0
0 0 1 2 2 1 0 0 0 0 0 1 1 1 1 2 2 2 2 3 3 3 2 3 3 4 3 3 3 3 3 3 3 2 1 0 0 0 0 0 0 0 0 0
0 0 1 2 3 2 0 0 0 0 0 0 1 1 2 3 2 1 1 1 1 0 0 1 3 3 3 3 3 3 3 3 2 1 0 0 0 0 0 0 0 0 0 0
0 0 1 2 2 1 0 0 0 0 0 0 0 2 3 3 1 1 2 1 0 0 0 1 2 2 2 2 2 2 2 1 1 0 0 0 0 0 0 0 0 0 0 0
0 0 0 1 1 1 0 0 0 0 0 0 1 2 2 3 2 2 3 2 1 0 1 1 1 1 0 1 1 1 1 0 0 0 0 0 0 0 0 0 0 0 0 0
0 0 0 0 1 1 1 0 0 0 0 0 1 2 2 3 3 3 2 2 1 0 0 0 0 0 0 0 0 0 0 0 0 0 0 0 0 0 0 0 0 0 0 0
0 0 0 0 0 0 0 0 0 0 0 0 1 1 2 3 3 1 1 1 0 0 0 0 0 0 0 0 0 0 0 0 0 0 0 0 0 0 0 0 0 0 0 0
0 0 0 0 0 0 0 0 0 0 0 0 0 0 1 2 1 0 0 0 0 0 0 0 0 0 0 0 0 0 0 0 0 0 0 0 0 0 0 0 0 0 0 0

GEFSNGP_con_probscp_168.txt.gz
Probability
0 0 1 2 2 1 1 0 0 0 0 1 5 9 10 11 14 15 14 14 18 21 22 18 12 9 8 8 8 7 5 4 3 4 4 4 4 4 3 3 3 2 1 1
0 0 2 2 2 2 2 2 0 0 1 3 8 12 13 15 21 22 20 20 23 24 22 18 15 11 7 7 8 7 5 3 3 4 5 5 5 4 3 3 3 2 1 1
0 0 1 2 2 3 5 5 4 4 5 8 13 15 15 18 25 28 26 26 27 26 22 19 17 12 7 5 6 6 4 3 3 4 4 5 5 4 4 4 3 2 1 1
0 0 0 1 3 6 9 10 9 9 10 12 15 18 18 19 24 27 26 26 27 25 22 19 17 14 8 5 4 4 3 3 4 4 4 4 4 4 4 4 3 2 1 0
0 0 0 2 4 7 9 11 12 12 15 17 19 21 23 24 24 24 24 25 26 25 22 18 16 16 12 8 5 4 3 4 4 5 4 4 4 3 3 3 2 1 0 0
0 0 0 2 5 7 7 9 12 15 18 22 23 23 26 29 28 26 27 27 26 24 21 17 16 17 16 12 7 5 3 3 4 5 5 5 4 3 2 1 0 0 0 0
0 0 1 4 7 7 5 9 15 19 21 24 27 28 33 36 34 32 30 28 25 22 19 17 16 16 16 13 9 6 5 4 3 4 5 5 3 2 1 0 0 0 0 0
0 1 2 5 8 7 7 13 20 23 24 27 32 37 42 42 37 34 30 26 23 19 17 16 16 16 15 14 12 10 7 5 3 2 3 3 2 1 1 0 0 0 0 0
3 5 6 7 7 6 9 17 23 24 25 28 33 38 41 39 34 31 28 25 21 19 17 16 16 16 16 16 15 12 9 6 4 3 3 3 1 0 1 1 0 0 0 0
8 10 11 10 8 7 10 16 21 24 25 26 28 30 31 30 28 27 26 24 22 21 20 17 14 13 13 14 13 12 9 6 5 4 5 4 1 0 1 1 0 0 0 0
9 10 11 11 9 9 12 15 19 23 23 21 20 20 21 21 21 21 22 23 23 22 19 14 10 8 7 8 8 8 8 6 5 4 4 3 1 0 1 1 0 0 0 0
6 5 5 6 7 10 12 14 17 19 18 14 13 14 14 14 14 15 17 19 19 18 15 9 5 3 3 4 4 5 5 5 4 4 3 2 1 0 0 0 0 0 0 0
3 2 3 4 6 9 10 11 14 15 12 10 9 9 9 9 9 11 13 14 14 13 10 6 3 1 1 1 2 2 2 3 4 3 3 2 1 0 0 0 0 0 0 0
2 3 4 4 5 6 6 8 10 10 9 8 8 8 8 8 9 9 9 8 9 9 8 6 3 2 1 1 1 1 2 2 3 3 3 2 1 0 0 0 0 0 0 0
3 3 3 3 2 2 3 5 7 7 7 8 8 9 9 8 9 8 6 5 6 7 7 6 4 3 3 2 1 1 2 3 3 3 3 2 1 0 0 0 0 0 0 0
2 2 2 1 0 0 0 2 4 5 5 6 7 8 9 8 7 6 4 4 5 5 5 4 4 4 3 3 3 2 2 2 3 3 3 2 1 0 0 0 0 0 0 0
1 1 1 0 0 0 0 0 2 3 3 3 4 5 7 7 6 5 3 3 4 4 3 3 3 4 4 3 4 4 3 2 2 3 3 2 1 0 0 0 0 0 0 0
1 0 0 0 0 0 0 0 0 1 1 1 2 3 4 5 5 4 2 1 2 2 2 2 2 3 3 4 5 5 4 3 3 2 2 2 1 0 0 0 0 0 0 0
0 0 0 0 0 0 0 0 0 0 0 0 1 2 3 3 3 2 0 0 1 1 1 1 1 1 2 3 3 4 3 3 3 2 1 1 0 0 0 0 0 0 0 0
0 0 0 0 0 0 0 0 0 0 0 0 0 2 2 1 1 0 0 0 0 0 0 0 0 1 2 2 2 3 3 3 3 1 0 0 0 0 0 0 0 0 0 0
0 0 0 0 0 0 0 0 0 0 0 0 0 1 1 1 0 0 0 0 0 0 1 1 1 1 2 2 2 3 3 3 2 1 0 0 0 0 0 0 0 0 0 0
0 0 1 1 0 0 0 0 0 0 0 0 0 0 0 0 0 0 1 0 0 0 1 2 3 2 2 2 2 3 3 3 1 1 0 0 0 0 0 0 0 0 0 0
0 0 1 1 0 0 0 0 0 0 0 0 0 0 0 0 0 1 2 1 0 0 1 2 2 2 2 2 2 2 2 2 1 1 0 0 0 0 0 0 0 0 0 0
0 0 1 1 0 0 0 0 0 0 0 0 0 0 0 0 0 1 2 2 0 0 0 1 1 1 2 2 2 1 1 1 1 1 0 0 0 0 0 0 0 0 0 0
0 0 0 0 0 0 0 0 0 0 0 0 0 0 0 0 0 0 1 1 0 0 0 0 0 0 1 1 1 0 0 0 0 0 0 0 0 0 0 0 0 0 0 0
0 0 0 0 0 0 0 0 0 0 0 0 0 0 0 0 0 0 0 0 0 0 0 0 0 0 0 0 0 0 0 0 0 0 0 0 0 0 0 0 0 0 0 0
0 0 0 0 0 0 0 0 0 0 0 0 0 0 0 0 0 0 0 0 0 0 0 0 0 0 0 0 0 0 0 0 0 0 0 0 0 0 0 0 0 0 0 0

GEFSNGP_con_probscp_174.txt.gz
Probability
0 0 0 0 0 0 0 0 0 0 0 1 2 4 8 14 24 34 40 42 45 50 53 54 49 39 31 29 29 27 22 20 20 18 15 15 17 18 18 17 13 10 9 9
0 0 0 0 0 0 0 0 0 0 1 3 5 7 9 14 21 31 39 44 49 54 60 61 55 47 38 32 29 25 21 20 20 19 16 15 15 16 16 15 13 10 8 7
0 0 0 0 0 0 0 1 1 2 3 6 10 14 14 15 20 27 36 46 53 59 66 68 63 54 44 36 30 26 23 20 18 16 13 11 11 12 13 13 12 12 10 8
0 0 0 1 2 2 2 3 4 6 8 12 18 22 21 23 27 31 37 45 52 58 64 67 62 53 44 39 35 30 25 20 14 10 8 8 10 12 13 14 14 15 14 13
0 0 0 1 4 5 5 8 11 14 16 22 25 25 26 33 41 44 45 46 50 55 61 63 59 49 42 39 37 32 25 19 12 7 6 8 12 15 17 18 18 18 17 16
0 0 1 3 5 7 8 14 22 26 28 31 32 32 37 46 52 55 54 53 53 57 62 62 57 49 42 38 35 30 23 16 12 10 9 11 15 18 20 20 19 20 19 17
0 0 3 7 10 12 17 26 34 35 34 37 42 49 53 55 57 59 58 56 58 62 64 62 56 49 42 37 34 28 21 15 13 12 10 12 16 18 19 19 19 19 18 15
1 4 10 16 19 24 33 42 44 40 38 43 51 57 58 58 58 58 56 55 57 62 62 60 54 47 42 39 34 29 23 18 16 13 12 14 17 17 16 17 17 16 13 10
10 15 24 29 32 38 44 48 49 45 43 46 49 51 52 53 55 55 53 53 54 57 58 57 53 46 43 41 37 33 28 24 21 18 17 17 17 16 15 14 13 11 8 6
24 29 35 38 40 42 44 47 48 48 46 41 39 40 42 44 47 49 50 51 52 53 53 53 51 48 45 42 40 38 33 27 23 21 19 17 15 14 12 11 9 8 6 4
34 36 38 39 38 37 39 42 44 46 43 36 32 32 33 36 38 41 44 46 48 48 48 46 45 45 44 42 41 38 33 27 21 17 15 13 11 10 9 7 6 5 5 4
35 36 36 35 32 30 31 34 36 38 37 33 30 28 28 29 31 33 36 39 41 42 40 37 35 36 37 37 36 34 30 25 18 13 11 9 9 9 7 5 4 3 3 3
32 31 31 29 26 24 25 26 28 30 30 28 26 25 24 23 23 24 27 30 33 35 34 31 29 28 29 29 29 28 25 22 18 14 10 8 9 11 9 5 3 1 1 1
27 25 23 22 21 19 18 19 21 22 20 19 18 17 17 17 16 16 19 22 25 27 28 26 24 22 20 21 22 21 19 19 18 17 13 9 9 12 12 8 4 3 2 1
20 20 17 16 15 13 11 11 14 14 12 12 12 13 14 13 12 12 14 16 17 19 20 19 17 14 14 15 16 15 14 15 16 15 13 9 9 10 10 8 6 5 4 2
14 15 13 11 9 7 5 6 9 9 7 7 9 11 11 11 10 11 12 13 13 13 14 13 11 10 11 12 12 11 11 11 11 12 10 8 7 7 7 7 7 6 5 4
10 10 9 7 5 4 3 4 6 5 4 6 8 8 7 7 9 10 11 11 11 11 12 11 9 9 11 11 9 9 9 9 9 9 8 6 6 5 5 5 6 6 5 4
6 6 5 5 4 3 3 3 4 3 3 5 6 5 4 5 7 9 10 10 10 10 11 10 9 9 10 10 8 8 8 9 9 8 6 5 5 4 4 4 6 6 4 2
4 4 4 4 4 3 3 3 3 1 1 3 4 3 3 3 4 6 8 9 9 9 9 8 7 6 7 7 7 7 8 8 8 6 5 4 4 3 3 4 6 6 3 2
3 3 3 4 3 3 3 3 2 1 0 1 2 3 3 3 3 4 6 7 7 7 6 5 4 3 3 3 4 5 6 6 6 5 4 3 3 3 3 4 5 6 4 3
2 2 2 3 3 3 3 3 2 1 0 1 1 1 2 3 3 4 5 6 6 5 3 2 1 1 1 1 1 3 3 4 6 5 4 3 3 3 3 3 5 5 4 3
1 1 1 2 2 2 2 1 1 0 0 0 0 0 1 2 3 3 4 5 5 3 2 2 1 0 0 0 0 1 2 4 6 6 5 4 3 3 3 3 4 4 3 2
0 0 0 1 1 1 1 1 1 1 1 0 0 0 0 1 2 2 3 3 3 2 1 1 1 0 0 0 0 0 2 4 5 4 4 3 3 3 3 3 3 3 3 3
0 0 0 0 1 1 1 1 1 2 2 1 0 0 0 0 1 1 1 1 1 1 0 0 0 0 0 1 1 1 2 3 3 2 2 3 3 3 3 3 3 3 2 2
0 0 0 0 0 1 1 0 1 1 1 1 0 0 0 0 0 0 0 0 0 0 0 0 0 0 1 2 2 2 2 2 2 2 2 2 2 2 2 2 2 1 1 1
0 0 0 0 0 0 0 0 0 0 0 0 0 0 0 0 0 0 0 0 0 0 0 1 1 0 1 3 4 3 2 2 2 1 1 1 1 1 1 1 1 0 0 0
0 0 0 0 0 0 0 0 0 0 0 0 0 0 0 0 0 0 0 0 0 0 1 2 3 1 1 3 5 4 3 2 2 2 1 0 0 0 0 0 0 0 0 0

GEFSNGP_con_probscp_180.txt.gz
Probability
0 0 0 0 0 0 0 0 1 5 9 12 14 18 25 33 41 47 50 58 70 81 85 86 86 81 72 67 64 60 56 54 48 40 32 28 25 24 24 25 25 23 19 16
0 0 0 0 0 0 0 1 2 7 12 17 20 25 31 37 42 49 55 62 73 83 86 87 85 80 74 70 66 63 59 56 51 43 34 28 25 25 25 26 25 24 22 19
0 0 0 0 1 1 1 3 7 13 19 26 31 36 41 44 48 55 63 70 78 84 86 87 85 81 76 73 68 66 64 60 54 46 37 31 27 27 27 26 25 25 24 23
0 0 0 1 3 3 4 9 15 21 27 33 40 43 48 56 60 63 69 76 81 83 84 85 83 81 78 73 69 67 66 63 57 48 41 36 32 30 29 27 26 27 27 27
0 0 1 3 5 5 7 14 21 27 33 38 40 43 55 68 70 70 73 77 79 79 80 82 83 82 78 73 68 67 66 63 57 51 45 39 35 33 31 29 28 28 28 29
0 0 2 5 6 6 9 18 26 34 41 44 44 49 65 76 75 73 75 76 75 75 78 82 83 83 79 74 69 67 65 60 55 50 43 38 35 33 30 29 28 29 28 25
1 1 5 8 9 12 21 31 40 47 53 56 60 67 75 79 78 76 76 76 75 76 80 83 84 82 80 75 70 67 62 57 52 47 40 36 34 32 30 29 29 30 27 23
7 9 14 19 22 30 42 50 55 60 63 68 74 77 78 77 76 76 75 75 76 78 81 83 83 81 78 74 70 66 59 53 49 45 39 34 33 32 30 28 28 28 25 22
20 23 30 36 40 47 55 60 62 65 69 72 74 74 72 71 71 72 72 73 74 76 78 79 79 77 74 70 67 62 56 52 48 44 39 35 32 29 27 26 25 24 22 18
31 34 39 42 46 51 56 58 59 62 65 66 68 68 66 64 64 66 67 69 70 71 72 73 73 71 67 65 64 59 54 50 47 42 39 36 31 26 25 24 22 20 17 14
36 38 40 41 43 47 50 51 54 57 58 58 59 60 58 57 58 59 62 65 67 67 65 64 65 63 60 60 60 56 50 45 42 38 34 32 28 23 20 18 15 13 11 10
36 38 40 40 41 43 45 47 50 53 53 51 50 51 51 50 51 53 57 61 63 59 54 52 54 54 53 54 54 51 44 39 36 32 28 25 24 20 15 11 7 5 4 4
34 36 39 39 39 41 43 44 46 48 47 44 41 42 44 44 45 46 49 52 52 47 43 43 44 44 44 45 46 43 38 34 31 27 23 21 21 19 15 10 6 3 2 1
28 29 33 35 36 36 37 36 38 39 38 36 34 33 35 37 38 40 42 44 43 39 37 36 35 34 33 34 36 36 32 28 26 23 20 18 18 18 16 13 10 8 5 2
19 21 24 28 29 28 27 27 30 30 29 28 27 27 29 32 36 38 38 37 36 34 30 28 27 26 25 26 28 28 25 20 18 18 16 15 15 15 14 13 12 12 9 6
13 15 18 21 21 20 20 22 24 24 22 22 22 24 26 29 32 33 31 29 29 28 25 23 21 21 20 20 21 20 17 13 11 11 10 11 12 12 13 12 12 12 11 8
11 12 14 15 15 14 15 17 18 18 18 18 18 20 23 23 23 22 21 21 23 25 23 20 19 18 17 17 16 14 11 8 6 6 7 9 11 12 12 12 12 12 10 8
9 9 9 11 11 11 10 11 13 14 14 14 14 14 15 16 15 15 15 17 19 20 20 18 15 14 14 14 14 13 10 7 5 6 8 9 10 11 11 10 10 10 9 7
8 8 8 9 9 8 8 8 9 10 10 10 10 9 10 12 12 12 13 15 15 15 16 15 11 11 12 12 12 12 10 7 6 8 9 9 8 9 9 9 8 8 7 7
7 8 9 8 7 7 7 8 8 8 8 8 7 7 8 10 12 13 13 13 12 12 14 12 10 11 11 10 9 9 8 6 5 5 7 7 7 7 7 7 8 8 7 7
5 6 7 7 6 5 5 6 6 6 7 5 4 5 7 10 12 13 13 12 10 10 9 9 10 9 8 6 6 6 5 3 2 2 4 5 6 7 7 7 8 9 8 7
4 4 4 4 4 4 4 3 3 4 4 3 2 3 6 9 10 10 10 9 7 6 6 7 8 7 5 4 4 4 3 2 1 1 1 2 4 6 6 7 7 8 8 7
5 5 4 3 2 3 3 3 2 3 4 3 2 2 5 6 6 6 5 5 5 4 5 6 5 4 3 3 3 3 3 2 1 0 0 1 3 5 6 5 5 6 6 6
5 5 4 2 2 2 2 2 2 3 2 2 1 1 2 2 2 2 3 3 4 4 5 4 3 3 3 3 3 3 2 1 0 0 1 2 4 5 4 4 4 4 4 4
3 2 1 1 1 1 1 1 1 1 1 0 0 0 0 0 0 1 2 3 3 3 3 3 2 2 3 4 3 3 2 2 1 1 2 3 3 3 3 3 3 3 3 3
1 0 0 0 0 0 0 0 0 0 0 0 0 0 0 0 0 0 1 2 2 2 2 3 2 1 2 4 4 4 3 3 2 1 2 3 2 2 2 3 3 3 2 2
0 0 0 0 0 0 0 0 0 0 0 0 0 0 0 0 0 0 0 1 1 2 2 2 1 1 2 4 5 5 5 4 3 2 3 4 3 2 2 3 3 2 1 1

GEFSNGP_con_probscp_186.txt.gz
Probability
0 0 0 0 0 0 0 1 3 6 9 12 16 21 25 28 32 37 39 45 52 53 52 55 55 51 45 42 39 35 31 26 20 14 12 11 8 6 5 4 3 6 8 8
0 0 0 0 1 1 1 2 4 9 12 14 17 22 28 33 36 38 40 46 53 55 56 57 57 54 49 44 40 37 34 28 21 17 15 12 9 7 7 6 6 8 9 8
0 0 0 1 2 2 4 5 6 10 14 16 18 23 31 37 38 38 41 48 55 58 60 60 58 57 53 48 43 40 36 30 23 18 15 12 9 7 8 8 9 10 10 9
0 0 0 1 2 4 9 11 10 10 13 15 18 25 33 37 37 36 40 48 54 57 59 60 59 56 54 52 48 43 39 32 25 18 14 10 8 7 7 8 10 9 9 9
0 0 0 1 2 6 13 18 17 14 15 17 21 29 35 37 37 38 42 46 49 52 56 60 59 56 53 52 49 45 41 35 27 20 15 11 8 7 8 9 9 7 6 7
0 0 1 3 5 8 14 20 21 21 22 23 25 30 35 39 41 45 48 47 46 50 55 59 59 55 52 49 46 44 40 34 29 24 19 14 10 9 10 10 9 7 6 6
0 0 1 5 9 9 11 16 21 26 29 29 29 31 37 42 45 48 50 50 49 50 52 55 56 55 51 47 43 40 37 33 29 25 20 15 12 11 11 11 9 8 6 5
0 1 3 9 11 10 10 16 23 30 35 37 37 39 43 45 46 47 48 49 50 51 49 49 51 52 51 46 41 38 35 30 25 21 17 13 11 11 11 10 10 8 6 4
4 6 9 13 15 15 15 19 25 32 38 42 45 46 46 47 46 45 45 45 47 48 46 45 46 48 48 44 40 36 32 27 22 18 15 12 11 11 11 10 10 8 7 7
13 14 15 18 20 20 20 22 25 31 37 42 44 44 44 45 45 42 40 41 43 44 43 42 43 45 45 42 38 34 30 25 21 17 15 13 12 11 11 10 10 9 8 9
16 16 16 17 18 20 21 22 24 28 34 39 41 40 40 41 39 37 35 35 36 37 37 37 38 39 38 35 32 29 27 25 20 16 14 13 12 11 10 9 8 7 7 8
12 12 12 11 12 15 18 19 20 24 29 34 37 38 37 34 32 30 29 28 28 29 29 29 29 29 27 26 25 24 24 22 18 14 12 12 12 11 8 6 4 3 3 4
8 9 9 8 9 12 14 15 17 21 24 29 33 34 32 28 25 25 24 24 23 23 22 21 20 19 17 18 18 19 19 18 15 12 11 11 11 9 7 4 3 1 1 1
7 8 9 9 9 11 11 13 16 18 21 26 29 28 26 23 21 20 20 20 19 17 15 12 11 11 11 11 12 12 13 14 13 11 10 9 9 9 8 6 4 2 1 1
7 7 9 10 10 10 9 11 14 15 18 21 21 20 19 18 16 14 12 11 11 9 8 6 5 5 6 7 8 9 10 11 11 10 9 8 8 8 8 7 6 3 1 0
6 6 7 9 10 9 9 10 13 14 14 14 12 11 11 10 8 5 3 3 3 4 4 3 3 3 4 6 7 7 9 10 9 8 6 5 4 4 4 4 5 4 2 1
4 4 5 7 9 9 9 10 11 11 10 8 5 4 4 3 2 1 0 0 0 1 2 3 3 3 3 4 6 7 7 8 7 5 3 2 1 1 1 1 3 4 3 1
4 4 6 8 9 9 7 7 7 6 5 4 2 1 1 0 0 0 0 0 0 0 1 1 2 3 3 4 6 6 7 6 5 3 1 0 0 0 0 0 1 2 2 1
4 4 6 8 8 6 5 4 3 2 2 1 0 0 0 0 0 0 0 0 0 0 0 0 1 3 3 4 5 6 6 5 4 2 1 0 0 0 0 0 0 0 0 0
4 4 5 5 5 4 3 2 1 0 0 0 0 0 0 0 0 0 0 0 0 0 0 0 1 2 3 3 4 6 6 5 4 2 1 0 0 0 0 0 0 0 0 0
3 3 3 2 2 2 2 1 0 0 0 0 0 0 0 0 0 0 0 0 0 0 0 0 1 2 3 3 4 6 6 5 4 2 1 0 0 0 0 0 0 0 0 0
2 2 1 1 1 1 1 0 0 0 0 0 0 0 0 0 0 0 0 0 0 0 0 0 1 3 3 3 4 5 5 4 3 2 1 0 0 0 0 0 0 0 0 0
1 1 0 0 0 0 0 0 0 0 0 0 0 0 0 0 0 0 0 0 0 0 0 0 2 3 3 3 3 3 3 3 2 2 1 0 0 0 0 0 0 0 0 0
0 0 0 0 0 0 0 0 0 0 0 0 0 0 0 0 0 0 0 0 0 0 0 0 1 2 3 3 1 1 2 2 1 1 0 0 0 0 0 0 0 0 0 0
0 0 0 0 0 0 0 0 0 0 0 0 0 0 0 0 0 0 0 0 0 0 0 0 0 1 2 2 1 0 1 1 0 0 0 0 0 0 0 0 0 0 0 0
0 0 0 0 0 0 0 0 0 0 0 0 0 0 0 0 0 0 0 0 0 0 0 0 0 0 1 1 0 0 0 1 1 0 0 0 0 0 0 0 0 0 0 0
0 0 0 0 0 0 0 0 0 0 0 0 0 0 0 0 0 0 0 0 0 0 0 0 0 0 0 0 0 0 1 2 2 1 0 0 0 0 0 0 0 0 0 0

GEFSNGP_con_probscp_192.txt.gz
Probability
1 1 2 1 1 0 0 0 0 1 3 3 1 0 2 8 15 17 17 20 25 30 32 30 29 30 32 32 31 27 22 21 19 15 11 9 8 7 6 6 6 5 4 3
2 2 2 2 1 0 0 0 0 2 3 3 1 1 3 9 16 17 16 18 22 26 28 30 31 33 35 34 33 30 27 25 22 17 12 10 8 7 7 7 6 4 3 3
1 1 1 1 1 0 0 0 0 1 2 2 2 2 3 9 16 18 17 17 18 20 22 26 30 35 37 37 35 34 32 28 25 21 15 11 9 8 8 7 5 3 3 3
0 0 0 0 0 0 0 0 0 1 2 4 4 3 3 9 16 20 19 17 16 18 20 23 29 34 38 38 37 35 32 28 25 24 20 14 11 10 10 8 5 3 3 3
0 0 0 0 0 0 0 0 1 3 5 6 7 5 4 8 16 21 20 18 18 22 25 28 32 37 40 40 37 35 32 27 24 25 25 19 14 13 11 9 7 5 3 3
0 0 0 0 0 1 1 1 2 5 7 9 9 8 6 10 18 23 22 20 22 27 32 35 37 40 41 40 37 34 31 27 23 25 26 21 16 14 11 9 8 6 4 3
0 0 0 0 1 1 0 0 2 5 9 12 12 13 14 17 22 25 23 21 24 31 36 39 41 41 41 39 36 32 30 27 23 22 22 17 13 11 8 7 7 7 4 4
0 0 0 1 2 2 1 1 2 5 10 14 17 18 21 24 25 26 26 24 26 32 36 39 41 41 40 37 33 31 30 27 21 18 16 12 8 6 5 4 5 5 5 4
2 2 2 3 5 5 4 3 4 6 10 16 19 19 21 24 24 26 28 28 30 33 34 35 38 39 37 35 33 32 30 26 19 15 12 9 6 5 5 4 4 4 4 4
6 6 6 6 7 7 8 8 8 8 10 14 17 16 16 20 23 26 28 29 31 33 32 32 34 35 34 33 33 31 29 24 19 16 12 9 7 7 7 7 5 5 5 5
8 8 8 7 8 10 12 12 10 8 8 11 13 14 14 18 22 25 26 26 28 31 30 30 30 31 30 30 31 30 28 24 19 16 12 8 7 7 7 7 6 6 6 7
6 7 8 7 8 11 13 11 8 7 6 8 12 15 15 16 19 22 23 23 25 26 26 26 26 26 26 26 27 27 25 22 18 15 11 7 6 6 6 4 4 4 4 5
4 6 8 9 8 10 11 9 6 6 7 9 13 16 16 14 13 16 18 19 21 22 22 22 22 21 20 20 20 20 21 21 18 16 13 9 6 6 4 2 1 1 1 1
3 5 8 9 8 8 9 8 6 6 7 9 13 16 14 11 10 12 13 14 16 18 18 18 17 15 14 13 12 13 15 16 15 14 12 8 6 4 2 0 0 0 1 1
2 4 5 6 6 6 7 7 7 6 7 8 11 13 11 10 10 10 10 10 11 12 12 11 9 8 8 8 7 8 9 9 10 9 7 5 4 2 0 0 0 1 2 2
1 2 3 4 4 5 6 6 6 6 7 7 8 8 9 10 10 9 8 7 7 7 6 5 4 4 4 4 4 4 4 5 5 5 4 3 2 1 0 0 0 1 2 2
1 2 3 4 4 5 5 5 4 5 6 6 4 4 6 7 6 5 4 4 4 4 3 2 2 2 2 2 3 4 4 4 4 3 3 3 3 1 0 0 0 0 1 1
3 3 3 4 4 4 4 4 3 3 5 4 2 1 3 3 2 1 1 2 2 2 1 1 1 1 0 1 2 3 4 3 3 3 3 4 4 2 0 0 0 0 0 0
3 3 3 3 4 3 3 3 3 3 3 2 1 0 1 1 0 0 0 1 1 1 0 0 0 0 0 0 0 1 2 3 3 3 3 3 3 2 1 0 0 0 0 0
1 2 2 2 3 3 3 2 2 3 3 3 2 1 0 0 0 0 0 0 0 0 0 0 0 0 0 0 0 0 1 2 2 3 3 3 3 3 2 1 0 0 0 0
0 1 1 1 1 2 1 1 1 2 2 2 2 1 0 0 0 0 0 0 0 0 0 0 0 0 0 0 0 0 0 1 1 1 3 3 3 3 3 2 1 0 0 0
0 0 0 0 0 0 0 0 0 1 1 1 1 1 0 0 0 0 0 0 0 0 0 0 0 0 0 0 0 0 0 0 1 1 3 3 3 3 3 3 2 1 0 0
0 0 0 0 0 0 0 0 0 0 0 0 0 0 0 0 0 0 0 0 0 0 0 0 0 0 0 0 0 0 0 0 1 2 2 3 3 3 3 3 2 1 0 0
0 0 0 0 0 0 0 0 0 0 0 0 0 0 0 0 0 0 0 0 0 0 0 0 0 0 0 0 0 0 0 0 1 1 1 2 3 3 3 3 1 0 0 0
0 0 0 0 0 0 0 0 0 0 0 0 0 0 0 0 0 0 0 0 0 0 0 0 0 0 0 0 0 0 0 0 0 0 0 1 2 2 2 2 1 0 0 0
0 0 0 0 0 0 0 0 0 0 0 0 0 0 0 0 0 0 0 0 0 0 0 0 0 0 0 0 0 0 0 0 0 0 0 0 0 0 1 1 0 0 0 0
0 0 0 0 0 0 0 0 0 0 0 0 0 0 0 0 0 0 0 0 0 0 0 0 0 0 0 0 0 0 0 0 0 0 0 0 0 0 0 0 0 0 0 0

GEFSNGP_con_probscp_198.txt.gz
Probability
0 0 0 0 0 0 0 0 0 0 3 9 12 13 15 19 22 25 29 32 39 44 47 49 53 55 55 53 51 50 49 47 43 40 38 37 34 31 28 26 25 24 22 19
0 0 0 0 0 0 0 0 0 0 3 8 10 11 15 20 24 27 28 31 37 42 45 50 53 54 54 53 54 53 52 51 47 43 41 40 35 30 28 27 27 26 24 22
0 0 0 0 0 0 0 0 0 2 4 7 9 11 15 19 23 24 26 31 37 40 46 52 53 51 52 55 58 59 57 55 52 48 45 43 37 30 27 27 27 27 25 24
0 0 0 0 0 0 0 1 3 6 7 8 9 11 14 17 19 21 24 30 38 41 47 53 52 50 51 57 61 63 62 59 55 50 46 44 39 33 29 29 28 25 24 23
0 0 0 0 0 0 2 5 8 10 10 9 9 10 14 19 21 23 26 30 37 43 48 52 53 53 54 56 60 64 64 62 59 54 49 45 41 37 35 33 31 27 23 21
0 0 0 1 1 1 4 9 13 13 12 11 11 13 19 25 28 31 33 33 36 43 49 52 53 55 56 55 57 59 62 62 60 57 52 47 44 41 38 36 33 29 21 17
0 0 2 4 5 6 8 13 17 17 16 15 17 23 28 31 34 37 39 37 37 43 48 51 54 56 55 54 53 53 55 57 55 53 50 48 46 43 38 34 31 26 18 13
2 2 5 10 12 14 16 18 19 21 23 23 23 27 32 34 36 38 41 41 40 44 49 50 52 53 53 52 51 49 49 49 47 46 46 47 47 43 36 31 27 22 17 14
5 6 8 11 15 18 21 20 20 23 26 26 25 26 30 35 37 36 37 40 42 45 48 49 48 48 49 49 49 48 46 44 43 43 44 45 43 39 33 28 25 21 17 16
6 6 8 11 14 17 19 20 20 24 27 26 24 25 29 33 34 33 32 34 39 42 43 44 43 43 45 46 46 46 45 43 41 39 39 39 36 32 28 25 23 20 18 17
4 5 7 10 13 15 18 19 20 23 25 23 21 23 25 26 27 27 26 28 31 34 35 36 38 40 42 44 45 44 43 41 37 33 31 31 29 25 21 20 18 16 16 15
5 6 8 10 11 13 17 19 21 23 23 19 17 17 19 20 20 21 23 24 27 29 29 29 33 38 41 43 44 44 41 36 30 26 23 23 23 20 16 13 10 9 9 10
7 9 11 11 10 13 16 19 22 22 20 16 12 12 14 15 17 19 20 21 24 25 24 24 28 33 37 41 42 42 38 31 24 20 17 17 19 19 15 10 6 4 4 4
8 10 12 12 12 13 14 16 19 19 16 12 10 9 10 12 15 18 18 19 20 21 21 21 24 28 32 35 36 35 31 25 19 16 15 16 18 19 18 13 10 7 4 2
9 11 12 12 12 12 11 11 13 14 12 10 9 8 8 10 14 17 19 19 19 20 20 21 22 25 27 29 28 26 23 19 17 16 16 16 17 18 17 15 13 10 7 4
10 10 10 10 10 9 8 8 9 9 9 9 9 8 8 9 12 15 18 18 18 18 19 20 21 21 22 22 21 19 16 14 14 16 17 15 14 14 14 13 12 10 8 6
7 8 8 8 7 6 6 7 8 8 8 8 8 7 7 8 11 13 14 15 15 16 18 19 18 16 15 16 15 14 11 10 10 13 15 13 11 11 10 8 8 8 6 5
3 4 5 4 3 4 5 7 9 9 8 7 7 6 7 8 10 11 11 13 16 17 17 16 14 12 12 12 12 10 8 6 6 8 10 9 8 8 7 5 5 6 5 4
2 3 4 3 2 4 6 7 8 7 7 7 6 6 6 6 8 10 11 14 16 16 14 10 8 8 9 9 8 7 4 3 3 4 4 4 4 5 5 4 3 4 5 4
4 5 5 5 5 6 6 6 5 5 6 6 6 6 5 5 6 8 11 12 13 12 9 5 4 4 4 4 3 3 2 1 0 1 1 1 0 1 2 2 3 4 5 4
5 6 6 6 6 7 6 4 3 4 5 6 6 5 4 4 5 8 9 9 7 6 4 2 2 2 1 1 0 0 0 0 0 0 0 0 0 0 0 1 3 4 5 4
5 5 5 4 4 4 4 3 3 3 4 3 3 3 3 3 5 6 7 5 3 2 2 1 1 1 0 0 0 0 0 0 0 0 0 1 1 1 1 1 3 4 4 4
4 4 4 3 3 3 3 3 3 3 3 1 1 1 1 2 3 4 4 2 1 0 0 0 0 0 0 0 0 0 0 0 0 0 0 1 2 2 2 2 3 3 3 3
3 3 3 3 3 4 3 3 3 4 3 1 1 1 1 2 3 2 1 1 0 0 0 0 0 0 0 0 0 0 0 0 0 0 0 1 2 1 1 2 1 1 2 3
1 1 1 1 2 3 3 2 3 3 3 2 2 2 2 2 2 1 0 0 0 0 0 0 0 0 0 0 0 0 0 0 0 0 0 0 1 1 0 1 1 1 2 3
0 0 0 0 1 1 1 1 1 1 1 1 1 1 1 1 1 0 0 0 0 0 0 0 0 0 0 0 0 0 0 0 0 0 0 0 0 1 1 1 1 2 3 3
0 0 0 0 0 0 0 0 0 0 0 0 0 0 0 0 0 0 0 0 0 0 0 0 0 0 0 0 0 0 0 0 0 0 0 0 0 1 1 1 1 3 3 3